DLH647 KPBI-LEBL

Flight info

Callsign DLH647
Flight time 8h 14m
Altitude 37000
Route SLIDZ3 SLIDZ DCT SUMRS/M085F370 M204 LUNKR/M085F390 M204 SOORY DCT 41N050W 43N040W 44N030W 44N020W/M085F410 DCT MUDOS/N0494F410 DCT STG DCT SUSOS/N0490F400 N725 DGO/N0498F320 N725 ELSAP/N0505F300 N725 LOBAR
Aircraft A359/H-SDE2E3GHIJ3J4J5LM1ORWXY/LB1D1

Departure

Time 2026-05-08 12:05
Airport Palm Beach International Airport (KPBI)

Arrival

Time 2026-05-08 20:19
Airport Josep Tarradellas Barcelona-El Prat Airport (LEBL)
Time Latitude Longitude Altitude Speed Heading
2026-05-08 11:53 26.67978 -80.09505 35 ft 0 kts 183°
2026-05-08 11:56 26.67981 -80.09507 35 ft 4 kts 203°
2026-05-08 11:56 26.67998 -80.09488 32 ft 4 kts 233°
2026-05-08 11:57 26.68004 -80.09478 32 ft 4 kts 221°
2026-05-08 11:57 26.67983 -80.09498 35 ft 0 kts 221°
2026-05-08 12:00 26.67977 -80.09529 35 ft 12 kts 267°
2026-05-08 12:00 26.68003 -80.09628 34 ft 15 kts 319°
2026-05-08 12:00 26.68110 -80.09650 33 ft 14 kts
2026-05-08 12:01 26.68148 -80.09596 35 ft 7 kts 70°
2026-05-08 12:01 26.68154 -80.09526 25 ft 14 kts 92°
2026-05-08 12:01 26.68150 -80.09393 35 ft 20 kts 91°
2026-05-08 12:01 26.68143 -80.09216 32 ft 26 kts 92°
2026-05-08 12:02 26.68132 -80.09008 33 ft 27 kts 92°
2026-05-08 12:02 26.68124 -80.08806 34 ft 26 kts 92°
2026-05-08 12:02 26.68116 -80.08605 34 ft 25 kts 93°
2026-05-08 12:02 26.68109 -80.08420 39 ft 23 kts 95°
2026-05-08 12:03 26.68103 -80.08242 38 ft 23 kts 91°
2026-05-08 12:03 26.68089 -80.08060 38 ft 23 kts 94°
2026-05-08 12:03 26.68079 -80.07893 40 ft 22 kts 90°
2026-05-08 12:03 26.68164 -80.07809 39 ft 17 kts 336°
2026-05-08 12:04 26.68199 -80.07914 40 ft 14 kts 277°
2026-05-08 12:04 26.68200 -80.08065 40 ft 44 kts 270°
2026-05-08 12:04 26.68227 -80.08719 34 ft 123 kts 270°
2026-05-08 12:04 26.68259 -80.09923 55 ft 183 kts 274°
2026-05-08 12:05 26.68186 -80.11229 819 ft 188 kts 266°
2026-05-08 12:05 26.68103 -80.12674 1635 ft 185 kts 273°
2026-05-08 12:05 26.68189 -80.14186 1857 ft 205 kts 274°
2026-05-08 12:05 26.68269 -80.15853 2091 ft 225 kts 268°
2026-05-08 12:06 26.68296 -80.17671 2321 ft 244 kts 265°
2026-05-08 12:06 26.68346 -80.19630 2558 ft 259 kts 270°
2026-05-08 12:06 26.68893 -80.21569 2971 ft 264 kts 292°
2026-05-08 12:06 26.69796 -80.23302 3684 ft 260 kts 294°
2026-05-08 12:07 26.70901 -80.24941 4069 ft 269 kts 309°
2026-05-08 12:07 26.72489 -80.26069 4478 ft 275 kts 333°
2026-05-08 12:07 26.74381 -80.26407 5003 ft 278 kts 356°
2026-05-08 12:07 26.76265 -80.25936 5615 ft 277 kts 13°
2026-05-08 12:08 26.78055 -80.25165 6250 ft 275 kts 14°
2026-05-08 12:08 26.79804 -80.24248 6616 ft 283 kts 26°
2026-05-08 12:08 26.81248 -80.22723 6993 ft 289 kts 49°
2026-05-08 12:08 26.82077 -80.20712 7520 ft 289 kts 68°
2026-05-08 12:09 26.82538 -80.18527 8125 ft 288 kts 71°
2026-05-08 12:09 26.82954 -80.16305 8579 ft 294 kts 71°
2026-05-08 12:09 26.83381 -80.14039 9002 ft 300 kts 71°
2026-05-08 12:09 26.83864 -80.11753 9476 ft 304 kts 69°
2026-05-08 12:10 26.84383 -80.09432 9905 ft 309 kts 69°
2026-05-08 12:10 26.84913 -80.07076 10255 ft 317 kts 69°
2026-05-08 12:10 26.85470 -80.04624 10377 ft 333 kts 69°
2026-05-08 12:10 26.86056 -80.02060 10504 ft 347 kts 69°
2026-05-08 12:11 26.86654 -79.99423 10606 ft 360 kts 70°
2026-05-08 12:11 26.87267 -79.96656 10731 ft 372 kts 71°
2026-05-08 12:11 26.87882 -79.93797 10845 ft 383 kts 72°
2026-05-08 12:11 26.88495 -79.90849 10969 ft 393 kts 73°
2026-05-08 12:12 26.89097 -79.87834 11267 ft 398 kts 73°
2026-05-08 12:12 26.89714 -79.84794 11576 ft 402 kts 73°
2026-05-08 12:12 26.90351 -79.81732 11933 ft 404 kts 73°
2026-05-08 12:12 26.90998 -79.78680 12275 ft 407 kts 73°
2026-05-08 12:13 26.91660 -79.75592 12667 ft 409 kts 72°
2026-05-08 12:13 26.92473 -79.72538 13036 ft 410 kts 64°
2026-05-08 12:13 26.93913 -79.69791 13371 ft 410 kts 46°
2026-05-08 12:13 26.95898 -79.67481 13577 ft 413 kts 38°
2026-05-08 12:14 26.98001 -79.65302 13901 ft 415 kts 36°
2026-05-08 12:14 27.00299 -79.63355 14284 ft 411 kts 24°
2026-05-08 12:14 27.02941 -79.62213 14603 ft 406 kts
2026-05-08 12:14 27.05740 -79.62103 14872 ft 402 kts 346°
2026-05-08 12:15 27.08390 -79.63003 15180 ft 397 kts 328°
2026-05-08 12:15 27.10622 -79.64776 15570 ft 390 kts 310°
2026-05-08 12:15 27.12235 -79.67197 15967 ft 386 kts 293°
2026-05-08 12:15 27.13096 -79.69997 16302 ft 386 kts 277°
2026-05-08 12:16 27.13158 -79.73001 16626 ft 388 kts 260°
2026-05-08 12:16 27.12386 -79.75917 16959 ft 393 kts 243°
2026-05-08 12:16 27.10827 -79.78456 17289 ft 401 kts 226°
2026-05-08 12:16 27.08582 -79.80360 17546 ft 412 kts 208°
2026-05-08 12:17 27.05829 -79.81367 17817 ft 425 kts 189°
2026-05-08 12:17 27.02844 -79.81285 18100 ft 437 kts 169°
2026-05-08 12:17 26.99983 -79.80024 18364 ft 449 kts 148°
2026-05-08 12:17 26.97620 -79.77690 18594 ft 458 kts 129°
2026-05-08 12:18 26.95874 -79.74688 18832 ft 463 kts 114°
2026-05-08 12:18 26.94737 -79.71308 19066 ft 466 kts 102°
2026-05-08 12:18 26.94200 -79.67771 19314 ft 467 kts 90°
2026-05-08 12:18 26.94250 -79.64139 19571 ft 467 kts 79°
2026-05-08 12:19 26.94893 -79.60577 19825 ft 466 kts 68°
2026-05-08 12:19 26.96115 -79.57222 20086 ft 464 kts 56°
2026-05-08 12:19 26.97870 -79.54199 20333 ft 461 kts 45°
2026-05-08 12:19 27.00087 -79.51623 20606 ft 458 kts 33°
2026-05-08 12:20 27.02668 -79.49548 20823 ft 456 kts 26°
2026-05-08 12:20 27.05257 -79.47441 21008 ft 463 kts 32°
2026-05-08 12:20 27.07629 -79.44977 21303 ft 468 kts 40°
2026-05-08 12:20 27.09695 -79.42182 21550 ft 473 kts 45°
2026-05-08 12:21 27.11651 -79.39196 21848 ft 476 kts 48°
2026-05-08 12:21 27.13523 -79.36125 22125 ft 478 kts 49°
2026-05-08 12:21 27.15358 -79.32992 22372 ft 481 kts 50°
2026-05-08 12:21 27.17178 -79.29829 22631 ft 483 kts 50°
2026-05-08 12:22 27.18997 -79.26657 22892 ft 485 kts 50°
2026-05-08 12:22 27.20833 -79.23462 23140 ft 487 kts 50°
2026-05-08 12:22 27.22681 -79.20261 23384 ft 489 kts 50°
2026-05-08 12:22 27.24539 -79.17054 23641 ft 490 kts 50°
2026-05-08 12:23 27.26410 -79.13830 23836 ft 493 kts 50°
2026-05-08 12:23 27.28286 -79.10600 24050 ft 494 kts 50°
2026-05-08 12:23 27.30169 -79.07356 24268 ft 496 kts 50°
2026-05-08 12:23 27.32038 -79.04136 24508 ft 497 kts 50°
2026-05-08 12:24 27.33928 -79.00872 24777 ft 498 kts 50°
2026-05-08 12:24 27.35828 -78.97595 25018 ft 500 kts 50°
2026-05-08 12:24 27.37729 -78.94315 25263 ft 502 kts 50°
2026-05-08 12:24 27.38993 -78.92131 25427 ft 503 kts 50°
2026-05-08 12:25 27.40908 -78.88821 25677 ft 505 kts 50°
2026-05-08 12:25 27.42826 -78.85502 25938 ft 507 kts 50°
2026-05-08 12:25 27.44757 -78.82158 26188 ft 509 kts 50°
2026-05-08 12:25 27.46690 -78.78807 26446 ft 511 kts 50°
2026-05-08 12:26 27.48628 -78.75446 26694 ft 513 kts 50°
2026-05-08 12:26 27.50575 -78.72068 26935 ft 515 kts 50°
2026-05-08 12:26 27.52533 -78.68668 27190 ft 517 kts 50°
2026-05-08 12:26 27.54489 -78.65265 27472 ft 518 kts 50°
2026-05-08 12:27 27.56453 -78.61848 27721 ft 519 kts 50°
2026-05-08 12:27 27.58399 -78.58462 27944 ft 521 kts 50°
2026-05-08 12:27 27.60373 -78.55026 28142 ft 525 kts 50°
2026-05-08 12:27 27.62369 -78.51554 28278 ft 528 kts 50°
2026-05-08 12:28 27.64367 -78.48061 28512 ft 530 kts 50°
2026-05-08 12:28 27.66366 -78.44561 28734 ft 531 kts 50°
2026-05-08 12:28 27.68372 -78.41050 28959 ft 533 kts 50°
2026-05-08 12:28 27.70386 -78.37524 29141 ft 534 kts 50°
2026-05-08 12:29 27.72405 -78.33989 29342 ft 536 kts 50°
2026-05-08 12:29 27.74400 -78.30493 29518 ft 537 kts 50°
2026-05-08 12:29 27.76423 -78.26944 29705 ft 539 kts 50°
2026-05-08 12:29 27.78453 -78.23380 29848 ft 540 kts 50°
2026-05-08 12:30 27.80494 -78.19794 30037 ft 542 kts 50°
2026-05-08 12:30 27.82530 -78.16209 30235 ft 542 kts 50°
2026-05-08 12:30 27.84570 -78.12624 30424 ft 541 kts 50°
2026-05-08 12:30 27.86619 -78.09040 30559 ft 543 kts 49°
2026-05-08 12:31 27.90728 -78.01846 30822 ft 545 kts 49°
2026-05-08 12:31 27.92780 -77.98243 31018 ft 544 kts 49°
2026-05-08 12:31 27.94834 -77.94646 31171 ft 543 kts 49°
2026-05-08 12:32 27.96856 -77.91102 31395 ft 542 kts 49°
2026-05-08 12:32 27.98900 -77.87527 31540 ft 542 kts 48°
2026-05-08 12:32 28.00953 -77.83942 31642 ft 542 kts 48°
2026-05-08 12:32 28.02998 -77.80357 31769 ft 542 kts 48°
2026-05-08 12:33 28.05039 -77.76767 31895 ft 542 kts 48°
2026-05-08 12:33 28.07080 -77.73171 32012 ft 542 kts 48°
2026-05-08 12:33 28.09116 -77.69577 32115 ft 542 kts 48°
2026-05-08 12:33 28.11152 -77.65980 32229 ft 542 kts 48°
2026-05-08 12:34 28.15226 -77.58773 32243 ft 546 kts 49°
2026-05-08 12:34 28.17257 -77.55139 32449 ft 544 kts 48°
2026-05-08 12:34 28.19287 -77.51522 32552 ft 543 kts 48°
2026-05-08 12:35 28.23360 -77.44292 32690 ft 544 kts 47°
2026-05-08 12:35 28.27426 -77.37052 32862 ft 544 kts 47°
2026-05-08 12:36 28.31457 -77.29843 32986 ft 543 kts 47°
2026-05-08 12:36 28.35503 -77.22579 33153 ft 543 kts 47°
2026-05-08 12:37 28.39544 -77.15309 33194 ft 545 kts 47°
2026-05-08 12:37 28.43586 -77.08015 33337 ft 544 kts 47°
2026-05-08 12:38 28.47595 -77.00774 33435 ft 544 kts 47°
2026-05-08 12:38 28.51627 -76.93479 33544 ft 544 kts 47°
2026-05-08 12:39 28.55652 -76.86182 33641 ft 544 kts 47°
2026-05-08 12:39 28.59666 -76.78889 33815 ft 542 kts 47°
2026-05-08 12:40 28.63689 -76.71586 33732 ft 546 kts 47°
2026-05-08 12:40 28.67685 -76.64295 33870 ft 545 kts 47°
2026-05-08 12:41 28.71749 -76.57018 34074 ft 539 kts 43°
2026-05-08 12:41 28.76437 -76.50380 33972 ft 540 kts 39°
2026-05-08 12:42 28.81271 -76.43831 34122 ft 537 kts 38°
2026-05-08 12:42 28.86068 -76.37372 34141 ft 538 kts 38°
2026-05-08 12:43 28.88505 -76.34086 34017 ft 542 kts 39°
2026-05-08 12:43 28.90934 -76.30789 34042 ft 542 kts 39°
2026-05-08 12:43 28.95769 -76.24201 34168 ft 540 kts 39°
2026-05-08 12:44 29.00604 -76.17609 34234 ft 540 kts 39°
2026-05-08 12:44 29.05426 -76.11024 34332 ft 538 kts 39°
2026-05-08 12:45 29.10223 -76.04468 34432 ft 538 kts 38°
2026-05-08 12:45 29.12641 -76.01174 34268 ft 543 kts 39°
2026-05-08 12:45 29.15035 -75.97898 34254 ft 544 kts 39°
2026-05-08 12:46 29.19876 -75.91243 34354 ft 542 kts 39°
2026-05-08 12:46 29.24704 -75.84607 34404 ft 542 kts 39°
2026-05-08 12:47 29.29506 -75.78000 34432 ft 542 kts 39°
2026-05-08 12:47 29.34319 -75.71362 34576 ft 540 kts 38°
2026-05-08 12:48 29.36734 -75.68041 34449 ft 543 kts 39°
2026-05-08 12:48 29.39161 -75.64694 34399 ft 545 kts 39°
2026-05-08 12:48 29.43961 -75.58047 34491 ft 544 kts 39°
2026-05-08 12:49 29.48791 -75.51353 34521 ft 543 kts 39°
2026-05-08 12:49 29.53614 -75.44662 34565 ft 543 kts 39°
2026-05-08 12:50 29.58430 -75.37969 34661 ft 542 kts 39°
2026-05-08 12:50 29.63240 -75.31290 34463 ft 548 kts 39°
2026-05-08 12:51 29.70499 -75.21148 34586 ft 546 kts 39°
2026-05-08 12:52 29.75333 -75.14390 34628 ft 546 kts 39°
2026-05-08 12:52 29.82571 -75.04254 34676 ft 546 kts 39°
2026-05-08 12:53 29.87362 -74.97527 34736 ft 545 kts 39°
2026-05-08 12:53 29.92173 -74.90766 34756 ft 545 kts 39°
2026-05-08 12:54 29.96979 -74.83998 34770 ft 545 kts 39°
2026-05-08 12:54 30.01784 -74.77217 34794 ft 545 kts 39°
2026-05-08 12:55 30.06549 -74.70485 34821 ft 545 kts 39°
2026-05-08 12:55 30.11352 -74.63689 34799 ft 546 kts 39°
2026-05-08 12:56 30.16158 -74.56871 34821 ft 546 kts 39°
2026-05-08 12:56 30.20958 -74.50052 34854 ft 546 kts 39°
2026-05-08 12:57 30.25752 -74.43230 34879 ft 546 kts 39°
2026-05-08 12:57 30.30506 -74.36455 34928 ft 546 kts 39°
2026-05-08 12:58 30.35294 -74.29619 34938 ft 546 kts 39°
2026-05-08 12:58 30.40068 -74.22792 34960 ft 545 kts 39°
2026-05-08 12:59 30.44838 -74.15959 34983 ft 545 kts 39°
2026-05-08 12:59 30.49612 -74.09108 34991 ft 545 kts 39°
2026-05-08 13:00 30.54353 -74.02294 34994 ft 546 kts 39°
2026-05-08 13:00 30.59132 -73.95413 34975 ft 547 kts 39°
2026-05-08 13:01 30.63903 -73.88546 35013 ft 546 kts 39°
2026-05-08 13:01 30.68661 -73.81658 35028 ft 546 kts 39°
2026-05-08 13:02 30.73414 -73.74767 35046 ft 546 kts 39°
2026-05-08 13:02 30.78177 -73.67861 34967 ft 549 kts 39°
2026-05-08 13:03 30.82972 -73.60891 34963 ft 550 kts 39°
2026-05-08 13:03 30.87701 -73.53997 35044 ft 548 kts 39°
2026-05-08 13:04 30.92468 -73.47051 35032 ft 549 kts 39°
2026-05-08 13:04 30.97235 -73.40089 35048 ft 549 kts 39°
2026-05-08 13:05 31.02011 -73.33109 34891 ft 554 kts 39°
2026-05-08 13:05 31.06812 -73.26059 34979 ft 552 kts 39°
2026-05-08 13:06 31.11542 -73.19099 35086 ft 550 kts 39°
2026-05-08 13:06 31.16308 -73.12095 35061 ft 550 kts 39°
2026-05-08 13:07 31.21070 -73.05080 35115 ft 550 kts 39°
2026-05-08 13:07 31.25848 -72.98034 34921 ft 555 kts 39°
2026-05-08 13:08 31.30596 -72.90999 35030 ft 553 kts 39°
2026-05-08 13:08 31.35360 -72.83933 35073 ft 552 kts 39°
2026-05-08 13:09 31.40127 -72.76860 35071 ft 553 kts 39°
2026-05-08 13:09 31.44887 -72.69782 35081 ft 554 kts 39°
2026-05-08 13:10 31.49663 -72.62667 35025 ft 556 kts 39°
2026-05-08 13:10 31.54408 -72.55575 35090 ft 554 kts 39°
2026-05-08 13:11 31.59175 -72.48443 35097 ft 554 kts 39°
2026-05-08 13:11 31.63135 -72.42512 35115 ft 555 kts 39°
2026-05-08 13:12 31.67896 -72.35368 35118 ft 555 kts 39°
2026-05-08 13:12 31.72657 -72.28209 35119 ft 556 kts 39°
2026-05-08 13:13 31.77382 -72.21090 35143 ft 556 kts 39°
2026-05-08 13:13 31.82138 -72.13911 35149 ft 556 kts 39°
2026-05-08 13:14 31.86893 -72.06719 35194 ft 556 kts 39°
2026-05-08 13:14 31.91607 -71.99576 35200 ft 556 kts 39°
2026-05-08 13:15 31.96348 -71.92378 35210 ft 556 kts 39°
2026-05-08 13:15 32.01083 -71.85176 35242 ft 555 kts 39°
2026-05-08 13:16 32.05816 -71.77964 35253 ft 555 kts 39°
2026-05-08 13:16 32.10510 -71.70797 35261 ft 555 kts 39°
2026-05-08 13:17 32.15229 -71.63578 35267 ft 555 kts 39°
2026-05-08 13:17 32.19949 -71.56343 35285 ft 555 kts 39°
2026-05-08 13:18 32.24622 -71.49160 35421 ft 552 kts 39°
2026-05-08 13:18 32.29301 -71.41959 35444 ft 553 kts 39°
2026-05-08 13:19 32.33999 -71.34724 35350 ft 555 kts 39°
2026-05-08 13:19 32.38695 -71.27473 35376 ft 554 kts 39°
2026-05-08 13:20 32.43383 -71.20220 35369 ft 555 kts 39°
2026-05-08 13:20 32.48070 -71.12952 35374 ft 555 kts 40°
2026-05-08 13:21 32.52723 -71.05722 35421 ft 555 kts 40°
2026-05-08 13:21 32.57402 -70.98437 35423 ft 555 kts 40°
2026-05-08 13:22 32.62082 -70.91138 35440 ft 555 kts 40°
2026-05-08 13:22 32.66748 -70.83847 35470 ft 554 kts 40°
2026-05-08 13:23 32.71402 -70.76559 35519 ft 553 kts 40°
2026-05-08 13:23 32.76028 -70.69305 35497 ft 554 kts 40°
2026-05-08 13:24 32.80683 -70.61989 35506 ft 554 kts 40°
2026-05-08 13:24 32.85311 -70.54703 35502 ft 554 kts 40°
2026-05-08 13:25 32.89945 -70.47389 35552 ft 553 kts 40°
2026-05-08 13:25 32.94591 -70.40048 35510 ft 554 kts 40°
2026-05-08 13:26 32.99202 -70.32743 35522 ft 554 kts 40°
2026-05-08 13:26 33.03835 -70.25392 35524 ft 554 kts 40°
2026-05-08 13:27 33.08468 -70.18025 35521 ft 554 kts 41°
2026-05-08 13:27 33.13055 -70.10716 35538 ft 555 kts 41°
2026-05-08 13:28 33.17690 -70.03320 35477 ft 556 kts 41°
2026-05-08 13:28 33.22316 -69.95919 35511 ft 555 kts 41°
2026-05-08 13:29 33.26935 -69.88513 35508 ft 556 kts 41°
2026-05-08 13:29 33.31520 -69.81147 35598 ft 554 kts 41°
2026-05-08 13:30 33.36140 -69.73727 35484 ft 557 kts 41°
2026-05-08 13:30 33.40745 -69.66290 35513 ft 556 kts 41°
2026-05-08 13:31 33.45348 -69.58843 35511 ft 556 kts 41°
2026-05-08 13:31 33.49948 -69.51387 35522 ft 556 kts 41°
2026-05-08 13:32 33.54541 -69.43933 35521 ft 556 kts 41°
2026-05-08 13:32 33.59114 -69.36496 35516 ft 556 kts 41°
2026-05-08 13:33 33.63716 -69.28996 35526 ft 556 kts 41°
2026-05-08 13:33 33.68308 -69.21496 35529 ft 556 kts 41°
2026-05-08 13:34 33.72861 -69.14047 35538 ft 557 kts 41°
2026-05-08 13:34 33.77441 -69.06536 35535 ft 557 kts 41°
2026-05-08 13:35 33.82022 -68.99006 35543 ft 557 kts 41°
2026-05-08 13:35 33.86599 -68.91470 35549 ft 557 kts 41°
2026-05-08 13:36 33.91140 -68.83979 35531 ft 557 kts 41°
2026-05-08 13:36 33.95702 -68.76434 35583 ft 557 kts 41°
2026-05-08 13:37 34.00257 -68.68886 35585 ft 557 kts 42°
2026-05-08 13:37 34.04815 -68.61319 35579 ft 557 kts 42°
2026-05-08 13:38 34.09334 -68.53802 35586 ft 557 kts 42°
2026-05-08 13:38 34.13870 -68.46236 35621 ft 555 kts 42°
2026-05-08 13:39 34.18399 -68.38669 35613 ft 556 kts 42°
2026-05-08 13:39 34.22928 -68.31086 35610 ft 556 kts 42°
2026-05-08 13:40 34.27453 -68.23494 35628 ft 556 kts 42°
2026-05-08 13:40 34.31955 -68.15925 35619 ft 556 kts 42°
2026-05-08 13:41 34.36456 -68.08337 35664 ft 555 kts 42°
2026-05-08 13:41 34.40962 -68.00729 35639 ft 555 kts 42°
2026-05-08 13:42 34.45463 -67.93114 35663 ft 556 kts 42°
2026-05-08 13:42 34.49983 -67.85455 35572 ft 558 kts 42°
2026-05-08 13:43 34.54465 -67.77838 35627 ft 558 kts 42°
2026-05-08 13:43 34.58969 -67.70168 35627 ft 558 kts 42°
2026-05-08 13:44 34.63464 -67.62495 35647 ft 558 kts 42°
2026-05-08 13:44 34.67986 -67.54767 35536 ft 560 kts 42°
2026-05-08 13:45 34.72454 -67.47107 35620 ft 558 kts 42°
2026-05-08 13:45 34.76939 -67.39402 35622 ft 558 kts 42°
2026-05-08 13:46 34.81422 -67.31685 35645 ft 559 kts 42°
2026-05-08 13:46 34.83672 -67.27811 35529 ft 562 kts 42°
2026-05-08 13:46 34.85932 -67.23915 35495 ft 562 kts 42°
2026-05-08 13:47 34.90423 -67.16142 35617 ft 559 kts 42°
2026-05-08 13:47 34.94899 -67.08383 35615 ft 559 kts 42°
2026-05-08 13:48 34.99373 -67.00613 35634 ft 560 kts 41°
2026-05-08 13:48 35.03846 -66.92836 35543 ft 562 kts 42°
2026-05-08 13:49 35.08329 -66.85014 35607 ft 560 kts 42°
2026-05-08 13:49 35.12777 -66.77231 35674 ft 559 kts 42°
2026-05-08 13:50 35.17229 -66.69433 35621 ft 560 kts 42°
2026-05-08 13:50 35.21674 -66.61636 35531 ft 563 kts 42°
2026-05-08 13:51 35.26141 -66.53775 35603 ft 560 kts 42°
2026-05-08 13:51 35.28352 -66.49869 35719 ft 557 kts 42°
2026-05-08 13:51 35.30565 -66.45960 35728 ft 557 kts 42°
2026-05-08 13:52 35.35006 -66.38122 35487 ft 564 kts 41°
2026-05-08 13:52 35.37277 -66.34142 35161 ft 572 kts 42°
2026-05-08 13:52 35.39542 -66.30136 35162 ft 572 kts 42°
2026-05-08 13:53 35.44040 -66.22125 35373 ft 567 kts 43°
2026-05-08 13:53 35.46236 -66.18198 35564 ft 562 kts 42°
2026-05-08 13:53 35.48447 -66.14248 35584 ft 562 kts 42°
2026-05-08 13:54 35.52920 -66.06291 35141 ft 575 kts 42°
2026-05-08 13:54 35.55206 -66.02224 34968 ft 579 kts 42°
2026-05-08 13:54 35.57479 -65.98151 35059 ft 577 kts 42°
2026-05-08 13:55 35.62000 -65.90029 35219 ft 572 kts 43°
2026-05-08 13:55 35.66470 -65.81982 35440 ft 568 kts 42°
2026-05-08 13:56 35.68719 -65.77946 35255 ft 574 kts 42°
2026-05-08 13:56 35.70989 -65.73876 35017 ft 580 kts 43°
2026-05-08 13:56 35.73265 -65.69774 35032 ft 580 kts 43°
2026-05-08 13:57 35.77798 -65.61573 35162 ft 578 kts 43°
2026-05-08 13:57 35.82290 -65.53436 35197 ft 577 kts 43°
2026-05-08 13:58 35.86805 -65.45240 35212 ft 577 kts 43°
2026-05-08 13:58 35.91306 -65.37047 35236 ft 577 kts 43°
2026-05-08 13:59 35.95810 -65.28828 35219 ft 577 kts 43°
2026-05-08 13:59 35.97294 -65.26109 35358 ft 574 kts 43°
2026-05-08 13:59 35.99512 -65.22037 35561 ft 571 kts 43°
2026-05-08 13:59 36.01746 -65.17948 35357 ft 576 kts 43°
2026-05-08 14:00 36.03994 -65.13831 35242 ft 579 kts 43°
2026-05-08 14:00 36.08521 -65.05532 35155 ft 582 kts 43°
2026-05-08 14:01 36.13041 -64.97217 35182 ft 582 kts 43°
2026-05-08 14:01 36.15284 -64.93070 35318 ft 578 kts 43°
2026-05-08 14:01 36.17525 -64.88931 35302 ft 580 kts 43°
2026-05-08 14:01 36.19781 -64.84769 35163 ft 583 kts 44°
2026-05-08 14:02 36.22008 -64.80648 35161 ft 584 kts 44°
2026-05-08 14:02 36.26513 -64.72290 35224 ft 583 kts 44°
2026-05-08 14:03 36.31016 -64.63916 35245 ft 583 kts 44°
2026-05-08 14:03 36.35527 -64.55520 35143 ft 587 kts 44°
2026-05-08 14:04 36.40046 -64.47072 35193 ft 587 kts 44°
2026-05-08 14:04 36.44551 -64.38630 35220 ft 586 kts 44°
2026-05-08 14:05 36.49047 -64.30181 35319 ft 584 kts 45°
2026-05-08 14:05 36.53505 -64.21786 35312 ft 585 kts 45°
2026-05-08 14:06 36.57990 -64.13323 35338 ft 585 kts 45°
2026-05-08 14:06 36.62468 -64.04851 35365 ft 585 kts 45°
2026-05-08 14:07 36.66934 -63.96379 35427 ft 584 kts 45°
2026-05-08 14:07 36.71387 -63.87906 35450 ft 584 kts 45°
2026-05-08 14:08 36.75839 -63.79417 35451 ft 584 kts 46°
2026-05-08 14:08 36.80256 -63.70975 35472 ft 584 kts 46°
2026-05-08 14:09 36.84691 -63.62478 35506 ft 584 kts 46°
2026-05-08 14:09 36.89121 -63.53971 35502 ft 584 kts 46°
2026-05-08 14:10 36.93551 -63.45445 35578 ft 584 kts 46°
2026-05-08 14:10 36.97929 -63.36992 35582 ft 582 kts 47°
2026-05-08 14:11 37.02328 -63.28474 35572 ft 583 kts 47°
2026-05-08 14:11 37.06733 -63.19924 35601 ft 583 kts 47°
2026-05-08 14:12 37.11098 -63.11407 35976 ft 573 kts 47°
2026-05-08 14:12 37.13212 -63.07234 36473 ft 562 kts 47°
2026-05-08 14:12 37.15260 -63.03177 36741 ft 556 kts 47°
2026-05-08 14:13 37.19406 -62.94989 36772 ft 556 kts 47°
2026-05-08 14:13 37.23577 -62.86788 36780 ft 557 kts 47°
2026-05-08 14:14 37.27754 -62.78587 36764 ft 557 kts 47°
2026-05-08 14:14 37.31925 -62.70380 36766 ft 557 kts 47°
2026-05-08 14:15 37.36092 -62.62159 36759 ft 557 kts 47°
2026-05-08 14:15 37.40224 -62.53984 36760 ft 557 kts 47°
2026-05-08 14:16 37.44370 -62.45756 36762 ft 556 kts 47°
2026-05-08 14:16 37.48512 -62.37520 36763 ft 557 kts 47°
2026-05-08 14:17 37.52654 -62.29268 36760 ft 557 kts 48°
2026-05-08 14:17 37.56799 -62.20988 36739 ft 557 kts 48°
2026-05-08 14:18 37.60927 -62.12719 36760 ft 557 kts 48°
2026-05-08 14:18 37.65051 -62.04436 36795 ft 557 kts 48°
2026-05-08 14:19 37.69178 -61.96134 36755 ft 558 kts 49°
2026-05-08 14:19 37.73283 -61.87855 36757 ft 561 kts 49°
2026-05-08 14:20 37.77434 -61.79468 36756 ft 562 kts 49°
2026-05-08 14:20 37.81573 -61.71088 36755 ft 562 kts 49°
2026-05-08 14:21 37.85705 -61.62689 36756 ft 561 kts 49°
2026-05-08 14:21 37.89797 -61.54340 36755 ft 561 kts 49°
2026-05-08 14:22 37.93909 -61.45933 36767 ft 562 kts 50°
2026-05-08 14:22 37.98027 -61.37496 36752 ft 561 kts 50°
2026-05-08 14:23 38.02130 -61.29063 36749 ft 560 kts 49°
2026-05-08 14:23 38.06212 -61.20649 36798 ft 560 kts 50°
2026-05-08 14:24 38.10286 -61.12251 36752 ft 563 kts 50°
2026-05-08 14:24 38.14390 -61.03769 36712 ft 562 kts 50°
2026-05-08 14:25 38.18468 -60.95296 36755 ft 561 kts 50°
2026-05-08 14:25 38.22543 -60.86814 36750 ft 561 kts 50°
2026-05-08 14:26 38.26631 -60.78474 36749 ft 557 kts 47°
2026-05-08 14:26 38.30728 -60.70162 36757 ft 552 kts 48°
2026-05-08 14:27 38.34741 -60.61824 36761 ft 549 kts 49°
2026-05-08 14:27 38.38693 -60.53502 36755 ft 549 kts 50°
2026-05-08 14:28 38.42606 -60.45223 36740 ft 546 kts 50°
2026-05-08 14:28 38.46518 -60.36924 36772 ft 543 kts 50°
2026-05-08 14:29 38.50355 -60.28632 36696 ft 541 kts 55°
2026-05-08 14:29 38.53285 -60.19822 36760 ft 537 kts 62°
2026-05-08 14:30 38.55915 -60.10895 36762 ft 535 kts 62°
2026-05-08 14:30 38.58473 -60.02055 36759 ft 533 kts 62°
2026-05-08 14:31 38.61050 -59.93198 36773 ft 531 kts 62°
2026-05-08 14:31 38.63653 -59.84315 36748 ft 532 kts 61°
2026-05-08 14:32 38.67539 -59.71052 36763 ft 528 kts 62°
2026-05-08 14:32 38.70078 -59.62306 36761 ft 526 kts 62°
2026-05-08 14:33 38.72612 -59.53540 36765 ft 523 kts 61°
2026-05-08 14:33 38.75134 -59.44804 36774 ft 521 kts 61°
2026-05-08 14:34 38.77628 -59.36125 36787 ft 518 kts 62°
2026-05-08 14:34 38.80116 -59.27455 36773 ft 516 kts 62°
2026-05-08 14:35 38.82565 -59.18885 36775 ft 513 kts 62°
2026-05-08 14:35 38.85009 -59.10288 36783 ft 511 kts 62°
2026-05-08 14:36 38.87436 -59.01723 36777 ft 509 kts 62°
2026-05-08 14:36 38.89839 -58.93187 36781 ft 507 kts 62°
2026-05-08 14:37 38.92211 -58.84740 36780 ft 504 kts 63°
2026-05-08 14:37 38.94582 -58.76282 36780 ft 502 kts 63°
2026-05-08 14:38 38.96945 -58.67829 36799 ft 500 kts 63°
2026-05-08 14:38 38.99286 -58.59436 36781 ft 498 kts 63°
2026-05-08 14:39 39.01598 -58.51122 36784 ft 495 kts 63°
2026-05-08 14:39 39.03906 -58.42791 36787 ft 492 kts 62°
2026-05-08 14:40 39.06199 -58.34508 36810 ft 489 kts 63°
2026-05-08 14:40 39.08475 -58.26261 36791 ft 488 kts 63°
2026-05-08 14:41 39.10723 -58.18077 36779 ft 485 kts 63°
2026-05-08 14:41 39.12969 -58.09889 36794 ft 483 kts 63°
2026-05-08 14:42 39.15190 -58.01751 36806 ft 480 kts 63°
2026-05-08 14:42 39.17395 -57.93645 36798 ft 478 kts 63°
2026-05-08 14:43 39.19566 -57.85626 36799 ft 475 kts 63°
2026-05-08 14:43 39.21379 -57.78906 36808 ft 473 kts 63°
2026-05-08 14:44 39.23527 -57.70917 36798 ft 470 kts 63°
2026-05-08 14:44 39.25657 -57.62973 36801 ft 467 kts 63°
2026-05-08 14:45 39.27773 -57.55091 36811 ft 464 kts 63°
2026-05-08 14:45 39.29886 -57.47259 36811 ft 459 kts 61°
2026-05-08 14:46 39.31045 -57.43398 36451 ft 467 kts 56°
2026-05-08 14:46 39.32377 -57.39541 35656 ft 485 kts 59°
2026-05-08 14:46 39.33534 -57.35412 35290 ft 493 kts 73°
2026-05-08 14:46 39.34379 -57.31102 35392 ft 496 kts 77°
2026-05-08 14:47 39.35156 -57.26751 35508 ft 498 kts 76°
2026-05-08 14:47 39.36005 -57.22395 35597 ft 501 kts 75°
2026-05-08 14:47 39.38017 -57.13693 35766 ft 508 kts 71°
2026-05-08 14:48 39.40287 -57.04972 35873 ft 514 kts 70°
2026-05-08 14:48 39.42622 -56.96211 36029 ft 520 kts 71°
2026-05-08 14:49 39.44979 -56.87287 36154 ft 526 kts 71°
2026-05-08 14:49 39.47323 -56.78319 36265 ft 531 kts 71°
2026-05-08 14:50 39.49684 -56.69230 36511 ft 533 kts 71°
2026-05-08 14:50 39.50863 -56.64678 36717 ft 532 kts 71°
2026-05-08 14:50 39.52042 -56.60120 36835 ft 534 kts 71°
2026-05-08 14:51 39.54393 -56.50997 36835 ft 533 kts 71°
2026-05-08 14:51 39.56733 -56.41880 36840 ft 533 kts 71°
2026-05-08 14:52 39.60228 -56.28202 36832 ft 532 kts 71°
2026-05-08 14:53 39.62546 -56.19093 36846 ft 531 kts 71°
2026-05-08 14:53 39.64841 -56.10039 36846 ft 531 kts 72°
2026-05-08 14:54 39.67141 -56.00930 36856 ft 531 kts 72°
2026-05-08 14:54 39.69434 -55.91816 36852 ft 530 kts 72°
2026-05-08 14:55 39.71701 -55.82769 36855 ft 530 kts 72°
2026-05-08 14:55 39.73979 -55.73642 36854 ft 530 kts 72°
2026-05-08 14:56 39.76249 -55.64515 36859 ft 529 kts 72°
2026-05-08 14:56 39.78506 -55.55408 36856 ft 529 kts 72°
2026-05-08 14:57 39.80738 -55.46365 36858 ft 528 kts 72°
2026-05-08 14:57 39.82976 -55.37264 36872 ft 528 kts 72°
2026-05-08 14:58 39.85206 -55.28164 36870 ft 526 kts 72°
2026-05-08 14:58 39.87420 -55.19088 36873 ft 526 kts 72°
2026-05-08 14:59 39.89627 -55.10008 36875 ft 526 kts 72°
2026-05-08 14:59 39.92925 -54.96374 36878 ft 524 kts 73°
2026-05-08 15:00 39.95095 -54.87361 36874 ft 524 kts 73°
2026-05-08 15:00 39.97272 -54.78281 36883 ft 523 kts 73°
2026-05-08 15:01 39.99437 -54.69219 36879 ft 523 kts 73°
2026-05-08 15:01 40.01591 -54.60165 36881 ft 522 kts 73°
2026-05-08 15:02 40.03737 -54.51112 36889 ft 522 kts 73°
2026-05-08 15:02 40.05872 -54.42068 36890 ft 521 kts 73°
2026-05-08 15:03 40.07987 -54.33072 36889 ft 521 kts 73°
2026-05-08 15:03 40.10108 -54.24016 36889 ft 522 kts 73°
2026-05-08 15:04 40.12230 -54.14921 36893 ft 522 kts 73°
2026-05-08 15:04 40.14342 -54.05836 36891 ft 522 kts 73°
2026-05-08 15:05 40.16446 -53.96746 36892 ft 522 kts 73°
2026-05-08 15:05 40.18532 -53.87700 36894 ft 522 kts 73°
2026-05-08 15:06 40.20622 -53.78595 36892 ft 522 kts 74°
2026-05-08 15:06 40.22704 -53.69492 36897 ft 522 kts 74°
2026-05-08 15:07 40.24785 -53.60357 36895 ft 524 kts 74°
2026-05-08 15:07 40.26862 -53.51202 36896 ft 525 kts 74°
2026-05-08 15:08 40.28584 -53.43581 36899 ft 524 kts 74°
2026-05-08 15:08 40.30986 -53.32913 36900 ft 525 kts 74°
2026-05-08 15:09 40.33045 -53.23719 36907 ft 526 kts 74°
2026-05-08 15:09 40.35098 -53.14522 36905 ft 526 kts 74°
2026-05-08 15:10 40.37143 -53.05316 36904 ft 526 kts 74°
2026-05-08 15:10 40.39188 -52.96075 36914 ft 527 kts 74°
2026-05-08 15:11 40.41211 -52.86899 36912 ft 527 kts 74°
2026-05-08 15:11 40.43238 -52.77661 36918 ft 527 kts 75°
2026-05-08 15:12 40.45259 -52.68410 36917 ft 526 kts 75°
2026-05-08 15:12 40.47272 -52.59157 36917 ft 526 kts 75°
2026-05-08 15:13 40.49276 -52.49911 36927 ft 526 kts 75°
2026-05-08 15:13 40.51278 -52.40630 36927 ft 526 kts 75°
2026-05-08 15:14 40.53252 -52.31442 36936 ft 526 kts 75°
2026-05-08 15:14 40.55235 -52.22167 36945 ft 526 kts 75°
2026-05-08 15:15 40.57208 -52.12903 36941 ft 526 kts 75°
2026-05-08 15:15 40.59178 -52.03613 36949 ft 526 kts 75°
2026-05-08 15:16 40.61136 -51.94337 36956 ft 526 kts 75°
2026-05-08 15:16 40.63086 -51.85059 36954 ft 526 kts 75°
2026-05-08 15:17 40.65019 -51.75818 36960 ft 526 kts 74°
2026-05-08 15:17 40.66955 -51.66530 36968 ft 526 kts 74°
2026-05-08 15:18 40.68885 -51.57228 36974 ft 525 kts 74°
2026-05-08 15:18 40.70804 -51.47932 36974 ft 525 kts 74°
2026-05-08 15:19 40.72716 -51.38632 36973 ft 525 kts 74°
2026-05-08 15:19 40.74621 -51.29325 36986 ft 525 kts 74°
2026-05-08 15:20 40.76502 -51.20089 36974 ft 524 kts 73°
2026-05-08 15:20 40.78384 -51.10820 36988 ft 521 kts 73°
2026-05-08 15:21 40.80252 -51.01568 36998 ft 521 kts 74°
2026-05-08 15:21 40.82110 -50.92322 36997 ft 520 kts 73°
2026-05-08 15:22 40.83955 -50.83101 37004 ft 519 kts 74°
2026-05-08 15:22 40.85793 -50.73870 37008 ft 519 kts 74°
2026-05-08 15:23 40.87614 -50.64691 37006 ft 519 kts 74°
2026-05-08 15:23 40.89435 -50.55458 37005 ft 518 kts 73°
2026-05-08 15:24 40.91242 -50.46263 37016 ft 516 kts 73°
2026-05-08 15:24 40.93037 -50.37084 37019 ft 515 kts 73°
2026-05-08 15:25 40.94826 -50.27897 37022 ft 515 kts 73°
2026-05-08 15:25 40.96606 -50.18710 37018 ft 515 kts 73°
2026-05-08 15:26 40.98375 -50.09538 37024 ft 515 kts 73°
2026-05-08 15:26 41.00128 -50.00410 37030 ft 515 kts 73°
2026-05-08 15:27 41.02151 -49.91329 37038 ft 513 kts 69°
2026-05-08 15:27 41.04492 -49.82405 37033 ft 513 kts 68°
2026-05-08 15:28 41.06809 -49.73464 37043 ft 513 kts 69°
2026-05-08 15:28 41.09058 -49.64483 37048 ft 513 kts 69°
2026-05-08 15:29 41.11276 -49.55481 37051 ft 513 kts 69°
2026-05-08 15:29 41.13470 -49.46526 37055 ft 513 kts 69°
2026-05-08 15:30 41.15670 -49.37525 37059 ft 513 kts 70°
2026-05-08 15:30 41.17495 -49.30036 37068 ft 513 kts 70°
2026-05-08 15:31 41.19683 -49.21027 37057 ft 512 kts 69°
2026-05-08 15:31 41.21863 -49.12015 37069 ft 512 kts 69°
2026-05-08 15:32 41.24032 -49.03017 37074 ft 511 kts 70°
2026-05-08 15:32 41.26193 -48.94018 37075 ft 511 kts 69°
2026-05-08 15:33 41.28347 -48.85008 37083 ft 510 kts 70°
2026-05-08 15:33 41.30494 -48.75995 37088 ft 511 kts 70°
2026-05-08 15:34 41.32619 -48.67037 37093 ft 511 kts 70°
2026-05-08 15:34 41.34752 -48.58014 37094 ft 511 kts 69°
2026-05-08 15:35 41.36883 -48.48956 37107 ft 512 kts 70°
2026-05-08 15:35 41.39005 -48.39907 37101 ft 511 kts 70°
2026-05-08 15:36 41.41115 -48.30876 37108 ft 509 kts 69°
2026-05-08 15:36 41.43206 -48.21879 37122 ft 507 kts 69°
2026-05-08 15:37 41.45289 -48.12894 37124 ft 507 kts 69°
2026-05-08 15:37 41.47349 -48.03969 37127 ft 508 kts 69°
2026-05-08 15:38 41.49422 -47.94958 37131 ft 507 kts 69°
2026-05-08 15:38 41.51483 -47.85948 37137 ft 506 kts 69°
2026-05-08 15:39 41.53538 -47.76924 37142 ft 507 kts 69°
2026-05-08 15:39 41.55570 -47.67978 37149 ft 506 kts 69°
2026-05-08 15:40 41.57606 -47.58982 37152 ft 505 kts 71°
2026-05-08 15:40 41.59538 -47.49991 37161 ft 501 kts 72°
2026-05-08 15:41 41.61453 -47.41044 37164 ft 500 kts 71°
2026-05-08 15:41 41.63409 -47.32165 37164 ft 500 kts 71°
2026-05-08 15:42 41.65397 -47.23229 37172 ft 498 kts 70°
2026-05-08 15:42 41.67366 -47.14357 37177 ft 497 kts 70°
2026-05-08 15:43 41.69316 -47.05535 37176 ft 497 kts 70°
2026-05-08 15:43 41.71269 -46.96658 37189 ft 497 kts 71°
2026-05-08 15:44 41.73210 -46.87788 37193 ft 495 kts 71°
2026-05-08 15:44 41.75128 -46.78977 37190 ft 494 kts 70°
2026-05-08 15:45 41.77039 -46.70169 37197 ft 491 kts 70°
2026-05-08 15:45 41.78942 -46.61367 37210 ft 491 kts 70°
2026-05-08 15:46 41.80836 -46.52572 37204 ft 490 kts 70°
2026-05-08 15:46 41.82710 -46.43832 37211 ft 490 kts 71°
2026-05-08 15:47 41.84589 -46.35031 37218 ft 490 kts 71°
2026-05-08 15:47 41.86452 -46.26274 37221 ft 490 kts 71°
2026-05-08 15:48 41.89246 -46.13059 37225 ft 490 kts 71°
2026-05-08 15:49 41.91102 -46.04238 37224 ft 490 kts 71°
2026-05-08 15:49 41.92934 -45.95494 37227 ft 488 kts 71°
2026-05-08 15:50 41.94759 -45.86737 37226 ft 486 kts 70°
2026-05-08 15:50 41.96578 -45.77988 37230 ft 486 kts 70°
2026-05-08 15:51 41.98389 -45.69237 37252 ft 486 kts 70°
2026-05-08 15:51 42.00191 -45.60492 37255 ft 486 kts 70°
2026-05-08 15:52 42.01986 -45.51741 37247 ft 485 kts 70°
2026-05-08 15:52 42.03768 -45.43017 37246 ft 485 kts 70°
2026-05-08 15:53 42.05552 -45.34245 37254 ft 485 kts 70°
2026-05-08 15:53 42.07328 -45.25474 37253 ft 485 kts 70°
2026-05-08 15:54 42.09092 -45.16719 37262 ft 482 kts 70°
2026-05-08 15:54 42.10837 -45.08021 37265 ft 480 kts 70°
2026-05-08 15:55 42.12563 -44.99393 37265 ft 480 kts 70°
2026-05-08 15:55 42.15159 -44.86343 37276 ft 480 kts 70°
2026-05-08 15:56 42.16875 -44.77664 37273 ft 479 kts 70°
2026-05-08 15:56 42.18585 -44.68979 37279 ft 479 kts 70°
2026-05-08 15:57 42.20289 -44.60290 37278 ft 479 kts 70°
2026-05-08 15:57 42.21986 -44.51594 37286 ft 479 kts 70°
2026-05-08 15:58 42.23672 -44.42912 37284 ft 477 kts 70°
2026-05-08 15:58 42.25336 -44.34308 37292 ft 475 kts 70°
2026-05-08 15:59 42.26997 -44.25687 37289 ft 475 kts 70°
2026-05-08 15:59 42.28654 -44.17047 37303 ft 474 kts 70°
2026-05-08 16:00 42.30301 -44.08418 37301 ft 473 kts 70°
2026-05-08 16:00 42.31941 -43.99793 37308 ft 473 kts 70°
2026-05-08 16:01 42.33565 -43.91213 37304 ft 473 kts 70°
2026-05-08 16:01 42.35190 -43.82582 37312 ft 473 kts 70°
2026-05-08 16:02 42.36808 -43.73959 37310 ft 473 kts 70°
2026-05-08 16:02 42.38419 -43.65327 37309 ft 473 kts 70°
2026-05-08 16:03 42.40022 -43.56700 37312 ft 473 kts 70°
2026-05-08 16:03 42.41618 -43.48075 37331 ft 472 kts 69°
2026-05-08 16:04 42.43192 -43.39516 37314 ft 470 kts 69°
2026-05-08 16:04 42.44765 -43.30935 37314 ft 469 kts 69°
2026-05-08 16:05 42.46333 -43.22349 37316 ft 469 kts 69°
2026-05-08 16:05 42.47894 -43.13754 37317 ft 469 kts 69°
2026-05-08 16:06 42.49444 -43.05177 37323 ft 467 kts 69°
2026-05-08 16:06 42.50980 -42.96634 37323 ft 466 kts 69°
2026-05-08 16:07 42.52512 -42.88087 37326 ft 466 kts 69°
2026-05-08 16:07 42.54029 -42.79587 37328 ft 466 kts 69°
2026-05-08 16:08 42.55548 -42.71030 37337 ft 467 kts 70°
2026-05-08 16:08 42.57066 -42.62447 37330 ft 468 kts 70°
2026-05-08 16:09 42.58320 -42.55312 37330 ft 468 kts 70°
2026-05-08 16:09 42.60080 -42.45252 37330 ft 468 kts 70°
2026-05-08 16:10 42.61580 -42.36642 37337 ft 469 kts 71°
2026-05-08 16:10 42.63068 -42.28058 37335 ft 470 kts 71°
2026-05-08 16:11 42.64559 -42.19409 37338 ft 470 kts 71°
2026-05-08 16:11 42.66045 -42.10748 37341 ft 470 kts 71°
2026-05-08 16:12 42.67527 -42.02078 37340 ft 471 kts 71°
2026-05-08 16:12 42.69012 -41.93350 37338 ft 475 kts 72°
2026-05-08 16:13 42.70493 -41.84593 37335 ft 475 kts 72°
2026-05-08 16:13 42.71957 -41.75881 37340 ft 475 kts 72°
2026-05-08 16:14 42.73428 -41.67095 37354 ft 476 kts 72°
2026-05-08 16:14 42.74898 -41.58276 37347 ft 479 kts 73°
2026-05-08 16:15 42.76365 -41.49430 37348 ft 479 kts 73°
2026-05-08 16:15 42.77824 -41.40576 37350 ft 479 kts 73°
2026-05-08 16:16 42.79032 -41.33216 37347 ft 479 kts 73°
2026-05-08 16:16 42.80482 -41.24348 37352 ft 481 kts 73°
2026-05-08 16:17 42.81927 -41.15451 37351 ft 481 kts 74°
2026-05-08 16:17 42.83359 -41.06591 37350 ft 481 kts 74°
2026-05-08 16:18 42.84791 -40.97680 37356 ft 482 kts 74°
2026-05-08 16:18 42.86219 -40.88755 37353 ft 481 kts 75°
2026-05-08 16:19 42.87639 -40.79830 37358 ft 481 kts 75°
2026-05-08 16:19 42.89052 -40.70904 37359 ft 481 kts 75°
2026-05-08 16:20 42.90448 -40.62039 37355 ft 481 kts 75°
2026-05-08 16:20 42.91846 -40.53106 37356 ft 480 kts 75°
2026-05-08 16:21 42.93234 -40.44196 37357 ft 479 kts 75°
2026-05-08 16:21 42.94612 -40.35300 37361 ft 479 kts 75°
2026-05-08 16:22 42.95984 -40.26389 37356 ft 479 kts 75°
2026-05-08 16:22 42.97340 -40.17543 37371 ft 479 kts 75°
2026-05-08 16:23 42.98699 -40.08623 37357 ft 479 kts 75°
2026-05-08 16:23 43.00049 -39.99716 37357 ft 479 kts 75°
2026-05-08 16:24 43.01365 -39.90792 37357 ft 479 kts 76°
2026-05-08 16:24 43.02640 -39.81899 37362 ft 479 kts 76°
2026-05-08 16:25 43.03915 -39.72963 37354 ft 478 kts 76°
2026-05-08 16:25 43.05189 -39.64033 37355 ft 478 kts 76°
2026-05-08 16:26 43.06459 -39.55094 37354 ft 478 kts 76°
2026-05-08 16:26 43.07721 -39.46157 37364 ft 479 kts 76°
2026-05-08 16:27 43.08975 -39.37221 37356 ft 478 kts 76°
2026-05-08 16:27 43.10214 -39.28341 37355 ft 477 kts 77°
2026-05-08 16:28 43.11451 -39.19421 37357 ft 477 kts 77°
2026-05-08 16:28 43.12680 -39.10505 37353 ft 476 kts 77°
2026-05-08 16:29 43.13903 -39.01584 37358 ft 477 kts 77°
2026-05-08 16:29 43.15120 -38.92644 37361 ft 477 kts 77°
2026-05-08 16:30 43.16328 -38.83725 37365 ft 477 kts 77°
2026-05-08 16:30 43.17530 -38.74785 37356 ft 477 kts 77°
2026-05-08 16:31 43.18725 -38.65850 37357 ft 477 kts 77°
2026-05-08 16:31 43.19916 -38.56888 37363 ft 477 kts 77°
2026-05-08 16:32 43.21099 -38.47929 37359 ft 478 kts 77°
2026-05-08 16:32 43.22267 -38.39024 37354 ft 477 kts 77°
2026-05-08 16:33 43.23436 -38.30054 37359 ft 477 kts 77°
2026-05-08 16:33 43.24598 -38.21087 37363 ft 477 kts 77°
2026-05-08 16:34 43.25754 -38.12107 37360 ft 477 kts 77°
2026-05-08 16:34 43.26895 -38.03188 37363 ft 477 kts 77°
2026-05-08 16:35 43.28035 -37.94210 37371 ft 477 kts 77°
2026-05-08 16:35 43.29171 -37.85212 37365 ft 478 kts 77°
2026-05-08 16:36 43.30293 -37.76269 37362 ft 478 kts 77°
2026-05-08 16:36 43.31413 -37.67278 37363 ft 478 kts 77°
2026-05-08 16:37 43.32527 -37.58277 37378 ft 478 kts 77°
2026-05-08 16:37 43.33635 -37.49260 37365 ft 479 kts 77°
2026-05-08 16:38 43.34738 -37.40231 37362 ft 479 kts 77°
2026-05-08 16:38 43.35833 -37.31192 37362 ft 479 kts 77°
2026-05-08 16:39 43.36922 -37.22151 37363 ft 479 kts 77°
2026-05-08 16:39 43.37999 -37.13150 37360 ft 481 kts 77°
2026-05-08 16:40 43.39079 -37.04058 37360 ft 481 kts 77°
2026-05-08 16:40 43.40152 -36.94959 37357 ft 481 kts 77°
2026-05-08 16:41 43.41218 -36.85855 37361 ft 481 kts 77°
2026-05-08 16:42 43.42797 -36.72245 37359 ft 484 kts 77°
2026-05-08 16:42 43.43850 -36.63097 37357 ft 484 kts 77°
2026-05-08 16:43 43.44897 -36.53924 37353 ft 485 kts 78°
2026-05-08 16:43 43.45930 -36.44809 37352 ft 484 kts 78°
2026-05-08 16:44 43.46963 -36.35624 37349 ft 487 kts 77°
2026-05-08 16:44 43.47994 -36.26404 37349 ft 488 kts 77°
2026-05-08 16:45 43.49019 -36.17152 37348 ft 488 kts 77°
2026-05-08 16:45 43.50036 -36.07896 37346 ft 488 kts 77°
2026-05-08 16:46 43.51046 -35.98648 37346 ft 489 kts 77°
2026-05-08 16:46 43.52047 -35.89406 37346 ft 490 kts 77°
2026-05-08 16:47 43.53047 -35.80096 37343 ft 491 kts 77°
2026-05-08 16:47 43.54040 -35.70775 37343 ft 491 kts 77°
2026-05-08 16:48 43.55026 -35.61453 37347 ft 492 kts 77°
2026-05-08 16:48 43.56010 -35.52081 37343 ft 494 kts 77°
2026-05-08 16:49 43.56979 -35.42761 37333 ft 494 kts 77°
2026-05-08 16:49 43.57949 -35.33364 37333 ft 494 kts 77°
2026-05-08 16:50 43.58910 -35.23971 37333 ft 494 kts 77°
2026-05-08 16:50 43.59863 -35.14578 37330 ft 494 kts 77°
2026-05-08 16:51 43.60809 -35.05186 37331 ft 494 kts 77°
2026-05-08 16:51 43.61742 -34.95829 37337 ft 494 kts 77°
2026-05-08 16:52 43.62674 -34.86411 37340 ft 496 kts 77°
2026-05-08 16:52 43.63605 -34.76936 37330 ft 497 kts 77°
2026-05-08 16:53 43.64978 -34.62784 37314 ft 497 kts 77°
2026-05-08 16:53 43.65887 -34.53306 37330 ft 497 kts 77°
2026-05-08 16:54 43.66788 -34.43829 37329 ft 498 kts 77°
2026-05-08 16:54 43.67684 -34.34326 37317 ft 499 kts 77°
2026-05-08 16:55 43.68566 -34.24882 37324 ft 499 kts 77°
2026-05-08 16:55 43.69448 -34.15355 37320 ft 499 kts 77°
2026-05-08 16:56 43.70320 -34.05837 37332 ft 499 kts 77°
2026-05-08 16:56 43.71189 -33.96282 37316 ft 501 kts 77°
2026-05-08 16:57 43.72044 -33.86787 37314 ft 501 kts 77°
2026-05-08 16:57 43.72895 -33.77222 37311 ft 501 kts 77°
2026-05-08 16:58 43.73739 -33.67651 37326 ft 501 kts 77°
2026-05-08 16:58 43.74577 -33.58070 37308 ft 501 kts 77°
2026-05-08 16:59 43.75406 -33.48488 37308 ft 502 kts 77°
2026-05-08 16:59 43.76228 -33.38897 37304 ft 502 kts 77°
2026-05-08 17:00 43.77042 -33.29299 37315 ft 502 kts 77°
2026-05-08 17:00 43.77847 -33.19712 37306 ft 502 kts 77°
2026-05-08 17:01 43.78645 -33.10114 37301 ft 502 kts 77°
2026-05-08 17:01 43.79431 -33.00563 37300 ft 502 kts 77°
2026-05-08 17:02 43.80213 -32.90955 37344 ft 502 kts 77°
2026-05-08 17:02 43.80987 -32.81341 37292 ft 503 kts 77°
2026-05-08 17:03 43.81754 -32.71711 37292 ft 503 kts 77°
2026-05-08 17:03 43.82509 -32.62136 37292 ft 503 kts 77°
2026-05-08 17:04 43.83260 -32.52502 37292 ft 503 kts 77°
2026-05-08 17:04 43.83998 -32.42922 37289 ft 503 kts 77°
2026-05-08 17:05 43.84733 -32.33288 37284 ft 503 kts 77°
2026-05-08 17:05 43.85460 -32.23648 37284 ft 503 kts 77°
2026-05-08 17:06 43.86059 -32.15622 37277 ft 504 kts 77°
2026-05-08 17:06 43.86771 -32.05969 37273 ft 503 kts 77°
2026-05-08 17:07 43.87474 -31.96325 37271 ft 503 kts 77°
2026-05-08 17:07 43.88171 -31.86666 37269 ft 503 kts 77°
2026-05-08 17:08 43.88860 -31.76999 37267 ft 503 kts 77°
2026-05-08 17:08 43.89535 -31.67400 37272 ft 502 kts 77°
2026-05-08 17:09 43.90205 -31.57754 37271 ft 502 kts 77°
2026-05-08 17:09 43.90867 -31.48121 37265 ft 502 kts 77°
2026-05-08 17:10 43.91521 -31.38481 37265 ft 502 kts 78°
2026-05-08 17:10 43.92167 -31.28836 37265 ft 503 kts 78°
2026-05-08 17:11 43.92806 -31.19170 37259 ft 503 kts 78°
2026-05-08 17:11 43.93433 -31.09551 37260 ft 503 kts 78°
2026-05-08 17:12 43.94056 -30.99873 37260 ft 503 kts 78°
2026-05-08 17:12 43.94671 -30.90196 37264 ft 503 kts 78°
2026-05-08 17:13 43.95277 -30.80523 37254 ft 503 kts 78°
2026-05-08 17:13 43.95875 -30.70855 37252 ft 502 kts 78°
2026-05-08 17:14 43.96465 -30.61183 37249 ft 503 kts 78°
2026-05-08 17:14 43.97043 -30.51564 37277 ft 503 kts 78°
2026-05-08 17:15 43.97615 -30.41903 37237 ft 502 kts 78°
2026-05-08 17:15 43.98180 -30.32232 37239 ft 503 kts 78°
2026-05-08 17:16 43.98739 -30.22538 37236 ft 503 kts 78°
2026-05-08 17:16 43.99288 -30.12836 37281 ft 503 kts 78°
2026-05-08 17:17 43.99830 -30.03139 37229 ft 503 kts 78°
2026-05-08 17:17 44.00332 -29.93506 37226 ft 504 kts 79°
2026-05-08 17:18 44.00733 -29.83772 37229 ft 504 kts 80°
2026-05-08 17:18 44.01116 -29.74034 37223 ft 504 kts 79°
2026-05-08 17:19 44.01504 -29.64357 37216 ft 505 kts 79°
2026-05-08 17:19 44.01894 -29.54621 37216 ft 505 kts 79°
2026-05-08 17:20 44.02279 -29.44853 37213 ft 506 kts 79°
2026-05-08 17:20 44.02655 -29.35090 37208 ft 506 kts 80°
2026-05-08 17:21 44.03022 -29.25331 37200 ft 505 kts 80°
2026-05-08 17:21 44.03379 -29.15585 37193 ft 505 kts 80°
2026-05-08 17:22 44.03729 -29.05842 37201 ft 505 kts 80°
2026-05-08 17:22 44.04069 -28.96150 37200 ft 505 kts 80°
2026-05-08 17:23 44.04402 -28.86399 37198 ft 504 kts 81°
2026-05-08 17:23 44.04725 -28.76660 37189 ft 503 kts 81°
2026-05-08 17:24 44.05041 -28.66952 37187 ft 502 kts 81°
2026-05-08 17:24 44.05347 -28.57298 37184 ft 503 kts 81°
2026-05-08 17:25 44.05647 -28.47577 37193 ft 503 kts 81°
2026-05-08 17:25 44.05936 -28.37883 37180 ft 501 kts 81°
2026-05-08 17:26 44.06218 -28.28180 37169 ft 501 kts 81°
2026-05-08 17:26 44.06492 -28.18494 37161 ft 501 kts 81°
2026-05-08 17:27 44.06758 -28.08803 37196 ft 502 kts 81°
2026-05-08 17:27 44.07014 -27.99157 37155 ft 503 kts 81°
2026-05-08 17:28 44.07264 -27.89427 37158 ft 503 kts 82°
2026-05-08 17:28 44.07505 -27.79699 37161 ft 503 kts 82°
2026-05-08 17:29 44.07741 -27.69927 37157 ft 505 kts 82°
2026-05-08 17:29 44.07967 -27.60163 37145 ft 506 kts 82°
2026-05-08 17:30 44.08183 -27.50415 37140 ft 507 kts 82°
2026-05-08 17:30 44.08392 -27.40620 37140 ft 507 kts 82°
2026-05-08 17:31 44.08594 -27.30821 37133 ft 507 kts 82°
2026-05-08 17:31 44.08787 -27.21028 37132 ft 507 kts 82°
2026-05-08 17:32 44.08971 -27.11232 37125 ft 507 kts 82°
2026-05-08 17:32 44.09148 -27.01431 37124 ft 507 kts 82°
2026-05-08 17:33 44.09316 -26.91630 37123 ft 507 kts 82°
2026-05-08 17:33 44.09475 -26.81858 37111 ft 507 kts 82°
2026-05-08 17:34 44.09626 -26.72040 37115 ft 507 kts 82°
2026-05-08 17:34 44.09769 -26.62222 37107 ft 508 kts 82°
2026-05-08 17:35 44.09904 -26.52389 37103 ft 508 kts 82°
2026-05-08 17:35 44.10030 -26.42568 37110 ft 507 kts 82°
2026-05-08 17:36 44.10146 -26.32764 37096 ft 506 kts 82°
2026-05-08 17:36 44.10255 -26.23043 37086 ft 506 kts 82°
2026-05-08 17:37 44.10357 -26.13243 37080 ft 506 kts 82°
2026-05-08 17:37 44.10450 -26.03446 37103 ft 507 kts 83°
2026-05-08 17:38 44.10535 -25.93617 37076 ft 507 kts 83°
2026-05-08 17:38 44.10611 -25.83838 37070 ft 507 kts 83°
2026-05-08 17:39 44.10678 -25.74011 37071 ft 507 kts 83°
2026-05-08 17:39 44.10737 -25.64184 37088 ft 507 kts 83°
2026-05-08 17:40 44.10788 -25.54400 37054 ft 507 kts 83°
2026-05-08 17:40 44.10830 -25.44575 37056 ft 507 kts 84°
2026-05-08 17:41 44.10864 -25.34750 37048 ft 507 kts 84°
2026-05-08 17:41 44.10890 -25.24909 37051 ft 508 kts 84°
2026-05-08 17:42 44.10907 -25.15134 37049 ft 508 kts 84°
2026-05-08 17:42 44.10916 -25.05291 37033 ft 509 kts 84°
2026-05-08 17:43 44.10916 -24.95424 37030 ft 509 kts 85°
2026-05-08 17:43 44.10908 -24.85585 37034 ft 509 kts 85°
2026-05-08 17:44 44.10892 -24.75736 37031 ft 509 kts 85°
2026-05-08 17:44 44.10867 -24.65877 37023 ft 509 kts 85°
2026-05-08 17:45 44.10833 -24.56076 37018 ft 509 kts 85°
2026-05-08 17:45 44.10791 -24.46225 37012 ft 509 kts 85°
2026-05-08 17:46 44.10741 -24.36378 37005 ft 509 kts 86°
2026-05-08 17:46 44.10682 -24.26536 36999 ft 509 kts 86°
2026-05-08 17:47 44.10615 -24.16697 36998 ft 509 kts 86°
2026-05-08 17:47 44.10553 -24.08510 36988 ft 509 kts 86°
2026-05-08 17:48 44.10455 -23.96986 36996 ft 509 kts 86°
2026-05-08 17:48 44.10363 -23.87206 36978 ft 508 kts 86°
2026-05-08 17:49 44.10262 -23.77363 36964 ft 508 kts 86°
2026-05-08 17:49 44.10152 -23.67525 36969 ft 509 kts 86°
2026-05-08 17:50 44.10034 -23.57683 36966 ft 508 kts 87°
2026-05-08 17:50 44.09908 -23.47845 36960 ft 508 kts 87°
2026-05-08 17:51 44.09774 -23.38080 36950 ft 508 kts 87°
2026-05-08 17:51 44.09631 -23.28231 36941 ft 508 kts 87°
2026-05-08 17:52 44.09480 -23.18400 36942 ft 508 kts 88°
2026-05-08 17:53 44.09236 -23.03618 36932 ft 508 kts 88°
2026-05-08 17:53 44.09063 -22.93789 36933 ft 509 kts 87°
2026-05-08 17:54 44.08913 -22.85618 36935 ft 508 kts 87°
2026-05-08 17:54 44.08693 -22.74176 36922 ft 508 kts 88°
2026-05-08 17:55 44.08530 -22.66008 36926 ft 508 kts 88°
2026-05-08 17:55 44.08324 -22.56186 36907 ft 508 kts 88°
2026-05-08 17:56 44.08112 -22.46350 36912 ft 509 kts 89°
2026-05-08 17:56 44.07890 -22.36506 36906 ft 509 kts 89°
2026-05-08 17:57 44.07659 -22.26679 36900 ft 509 kts 89°
2026-05-08 17:57 44.07418 -22.16847 36902 ft 508 kts 88°
2026-05-08 17:58 44.07171 -22.07023 36894 ft 508 kts 88°
2026-05-08 17:58 44.06916 -21.97196 36891 ft 508 kts 89°
2026-05-08 17:59 44.06653 -21.87382 36883 ft 508 kts 90°
2026-05-08 17:59 44.06379 -21.77569 36880 ft 507 kts 90°
2026-05-08 18:00 44.06101 -21.67823 36867 ft 507 kts 90°
2026-05-08 18:00 44.05667 -21.53098 36876 ft 507 kts 91°
2026-05-08 18:01 44.05366 -21.43298 36870 ft 506 kts 91°
2026-05-08 18:01 44.05056 -21.33504 36865 ft 506 kts 91°
2026-05-08 18:02 44.04738 -21.23731 36862 ft 506 kts 91°
2026-05-08 18:02 44.04415 -21.14011 36861 ft 506 kts 91°
2026-05-08 18:03 44.04080 -21.04180 36858 ft 506 kts 91°
2026-05-08 18:03 44.03738 -20.94414 36857 ft 506 kts 91°
2026-05-08 18:04 44.03389 -20.84704 36856 ft 506 kts 91°
2026-05-08 18:04 44.03030 -20.74910 36861 ft 507 kts 91°
2026-05-08 18:05 44.02662 -20.65126 36851 ft 507 kts 91°
2026-05-08 18:05 44.02287 -20.55352 36850 ft 506 kts 91°
2026-05-08 18:06 44.01906 -20.45618 36849 ft 507 kts 92°
2026-05-08 18:06 44.01513 -20.35827 36849 ft 507 kts 92°
2026-05-08 18:07 44.01112 -20.26056 36840 ft 506 kts 92°
2026-05-08 18:07 44.00703 -20.16305 36845 ft 506 kts 92°
2026-05-08 18:08 44.00286 -20.06547 36843 ft 506 kts 92°
2026-05-08 18:08 43.99865 -19.96853 36840 ft 505 kts 92°
2026-05-08 18:09 43.99462 -19.87110 36835 ft 505 kts 93°
2026-05-08 18:09 43.99061 -19.77385 36837 ft 504 kts 93°
2026-05-08 18:10 43.98658 -19.67669 36838 ft 504 kts 91°
2026-05-08 18:10 43.98329 -19.57933 36835 ft 504 kts 93°
2026-05-08 18:11 43.97857 -19.48219 36829 ft 503 kts 94°
2026-05-08 18:11 43.97365 -19.38529 36828 ft 502 kts 94°
2026-05-08 18:12 43.96902 -19.28909 36826 ft 502 kts 94°
2026-05-08 18:12 43.96444 -19.19226 36828 ft 502 kts 94°
2026-05-08 18:13 43.95983 -19.09553 36830 ft 502 kts 94°
2026-05-08 18:13 43.95511 -18.99861 36830 ft 503 kts 94°
2026-05-08 18:14 43.95029 -18.90165 36823 ft 504 kts 94°
2026-05-08 18:14 43.94538 -18.80453 36822 ft 504 kts 94°
2026-05-08 18:15 43.94040 -18.70757 36824 ft 503 kts 94°
2026-05-08 18:15 43.93538 -18.61138 36823 ft 502 kts 94°
2026-05-08 18:16 43.93025 -18.51470 36819 ft 502 kts 94°
2026-05-08 18:16 43.92504 -18.41820 36817 ft 502 kts 95°
2026-05-08 18:17 43.91974 -18.32153 36812 ft 501 kts 95°
2026-05-08 18:17 43.91437 -18.22503 36815 ft 501 kts 95°
2026-05-08 18:18 43.90897 -18.12931 36810 ft 501 kts 95°
2026-05-08 18:18 43.90344 -18.03298 36808 ft 501 kts 95°
2026-05-08 18:19 43.89783 -17.93646 36808 ft 501 kts 95°
2026-05-08 18:19 43.89214 -17.84013 36807 ft 500 kts 95°
2026-05-08 18:20 43.88642 -17.74466 36806 ft 500 kts 95°
2026-05-08 18:20 43.88059 -17.64864 36806 ft 500 kts 95°
2026-05-08 18:21 43.87468 -17.55276 36806 ft 500 kts 95°
2026-05-08 18:21 43.86869 -17.45677 36802 ft 500 kts 96°
2026-05-08 18:22 43.86262 -17.36081 36802 ft 499 kts 96°
2026-05-08 18:22 43.85647 -17.26492 36799 ft 500 kts 96°
2026-05-08 18:23 43.85023 -17.16895 36796 ft 500 kts 96°
2026-05-08 18:23 43.84396 -17.07355 36798 ft 501 kts 96°
2026-05-08 18:24 43.83756 -16.97746 36800 ft 501 kts 97°
2026-05-08 18:24 43.83104 -16.88119 36794 ft 500 kts 97°
2026-05-08 18:25 43.82449 -16.78520 36798 ft 501 kts 96°
2026-05-08 18:25 43.81788 -16.68969 36792 ft 501 kts 97°
2026-05-08 18:26 43.81114 -16.59385 36795 ft 500 kts 98°
2026-05-08 18:26 43.80433 -16.49795 36797 ft 500 kts 97°
2026-05-08 18:27 43.79861 -16.41815 36786 ft 500 kts 97°
2026-05-08 18:27 43.79051 -16.30660 36794 ft 500 kts 97°
2026-05-08 18:28 43.78349 -16.21109 36795 ft 499 kts 97°
2026-05-08 18:28 43.77641 -16.11561 36794 ft 498 kts 98°
2026-05-08 18:29 43.76923 -16.02021 36789 ft 498 kts 97°
2026-05-08 18:29 43.76197 -15.92485 36792 ft 498 kts 98°
2026-05-08 18:30 43.75464 -15.82950 36787 ft 498 kts 98°
2026-05-08 18:30 43.74724 -15.73428 36782 ft 498 kts 98°
2026-05-08 18:31 43.73975 -15.63907 36774 ft 498 kts 98°
2026-05-08 18:31 43.73224 -15.54455 36790 ft 497 kts 98°
2026-05-08 18:32 43.72462 -15.44959 36793 ft 496 kts 98°
2026-05-08 18:32 43.71692 -15.35469 36788 ft 496 kts 98°
2026-05-08 18:33 43.70914 -15.25979 36776 ft 496 kts 99°
2026-05-08 18:33 43.70128 -15.16493 36791 ft 496 kts 98°
2026-05-08 18:34 43.69336 -15.07024 36791 ft 496 kts 98°
2026-05-08 18:34 43.68541 -14.97610 36785 ft 496 kts 99°
2026-05-08 18:35 43.67733 -14.88140 36784 ft 496 kts 99°
2026-05-08 18:35 43.66916 -14.78671 36785 ft 496 kts 99°
2026-05-08 18:36 43.66092 -14.69212 36785 ft 496 kts 99°
2026-05-08 18:36 43.65261 -14.59759 36787 ft 496 kts 99°
2026-05-08 18:37 43.64422 -14.50305 36785 ft 496 kts 99°
2026-05-08 18:37 43.63576 -14.40863 36785 ft 495 kts 99°
2026-05-08 18:38 43.62722 -14.31425 36785 ft 496 kts 99°
2026-05-08 18:38 43.61865 -14.22038 36785 ft 496 kts 99°
2026-05-08 18:39 43.60994 -14.12590 36788 ft 495 kts 99°
2026-05-08 18:39 43.60123 -14.03221 36788 ft 495 kts 99°
2026-05-08 18:40 43.59239 -13.93809 36785 ft 495 kts 99°
2026-05-08 18:40 43.58347 -13.84381 36772 ft 495 kts 99°
2026-05-08 18:41 43.57449 -13.74988 36789 ft 493 kts 99°
2026-05-08 18:41 43.56550 -13.65658 36784 ft 493 kts 100°
2026-05-08 18:42 43.55639 -13.56288 36785 ft 493 kts 100°
2026-05-08 18:42 43.54720 -13.46923 36784 ft 493 kts 100°
2026-05-08 18:43 43.53953 -13.39154 36787 ft 492 kts 100°
2026-05-08 18:43 43.53022 -13.29817 36790 ft 492 kts 100°
2026-05-08 18:44 43.52083 -13.20477 36790 ft 492 kts 100°
2026-05-08 18:44 43.51138 -13.11148 36785 ft 491 kts 100°
2026-05-08 18:45 43.50185 -13.01818 36793 ft 491 kts 100°
2026-05-08 18:45 43.49222 -12.92506 36793 ft 491 kts 101°
2026-05-08 18:46 43.48236 -12.83191 36793 ft 492 kts 101°
2026-05-08 18:46 43.47248 -12.73918 36791 ft 492 kts 101°
2026-05-08 18:47 43.46248 -12.64586 36796 ft 492 kts 101°
2026-05-08 18:47 43.45242 -12.55272 36796 ft 492 kts 101°
2026-05-08 18:48 43.44227 -12.45937 36799 ft 492 kts 101°
2026-05-08 18:48 43.43206 -12.36629 36797 ft 492 kts 101°
2026-05-08 18:49 43.42183 -12.27371 36798 ft 492 kts 101°
2026-05-08 18:49 43.41147 -12.18064 36801 ft 492 kts 101°
2026-05-08 18:50 43.40101 -12.08740 36801 ft 492 kts 101°
2026-05-08 18:50 43.39049 -11.99431 36799 ft 492 kts 101°
2026-05-08 18:51 43.37997 -11.90195 36801 ft 492 kts 101°
2026-05-08 18:51 43.36927 -11.80870 36804 ft 492 kts 102°
2026-05-08 18:52 43.35851 -11.71566 36806 ft 492 kts 102°
2026-05-08 18:52 43.34776 -11.62330 36804 ft 492 kts 102°
2026-05-08 18:53 43.33687 -11.53041 36806 ft 492 kts 102°
2026-05-08 18:53 43.32590 -11.43754 36808 ft 492 kts 102°
2026-05-08 18:54 43.31486 -11.34477 36805 ft 492 kts 102°
2026-05-08 18:54 43.30375 -11.25209 36807 ft 492 kts 102°
2026-05-08 18:55 43.28695 -11.11309 36811 ft 491 kts 102°
2026-05-08 18:56 43.27566 -11.02060 36811 ft 492 kts 102°
2026-05-08 18:56 43.26437 -10.92862 36795 ft 491 kts 102°
2026-05-08 18:57 43.25292 -10.83604 36816 ft 491 kts 102°
2026-05-08 18:57 43.24143 -10.74377 36813 ft 491 kts 102°
2026-05-08 18:58 43.22986 -10.65146 36816 ft 491 kts 102°
2026-05-08 18:58 43.21829 -10.55978 36815 ft 491 kts 103°
2026-05-08 18:59 43.20656 -10.46749 36820 ft 490 kts 103°
2026-05-08 18:59 43.19479 -10.37548 36811 ft 490 kts 103°
2026-05-08 19:00 43.18292 -10.28334 36816 ft 490 kts 103°
2026-05-08 19:00 43.17099 -10.19131 36810 ft 490 kts 103°
2026-05-08 19:01 43.15897 -10.09917 36835 ft 491 kts 103°
2026-05-08 19:01 43.14695 -10.00765 36825 ft 491 kts 103°
2026-05-08 19:02 43.13574 -9.91532 36829 ft 492 kts 102°
2026-05-08 19:02 43.12416 -9.82303 36817 ft 491 kts 101°
2026-05-08 19:03 43.11213 -9.73079 36832 ft 492 kts 102°
2026-05-08 19:03 43.09979 -9.63871 36835 ft 491 kts 102°
2026-05-08 19:04 43.08737 -9.54727 36834 ft 491 kts 102°
2026-05-08 19:04 43.07481 -9.45535 36822 ft 491 kts 102°
2026-05-08 19:05 43.06217 -9.36329 36839 ft 492 kts 102°
2026-05-08 19:05 43.04943 -9.27120 36835 ft 493 kts 102°
2026-05-08 19:06 43.03663 -9.17909 36841 ft 494 kts 102°
2026-05-08 19:06 43.02372 -9.08679 36823 ft 494 kts 102°
2026-05-08 19:07 43.01080 -8.99494 36843 ft 495 kts 102°
2026-05-08 19:07 42.99769 -8.90242 36842 ft 496 kts 102°
2026-05-08 19:08 42.98445 -8.80993 36845 ft 496 kts 104°
2026-05-08 19:08 42.97018 -8.71786 36849 ft 495 kts 105°
2026-05-08 19:09 42.95607 -8.62543 36858 ft 497 kts 104°
2026-05-08 19:09 42.94251 -8.53338 36854 ft 498 kts 104°
2026-05-08 19:10 42.92922 -8.44043 36852 ft 499 kts 102°
2026-05-08 19:10 42.92179 -8.34596 36861 ft 501 kts 98°
2026-05-08 19:11 42.91586 -8.25135 36859 ft 505 kts 97°
2026-05-08 19:11 42.91005 -8.15577 36860 ft 505 kts 97°
2026-05-08 19:12 42.90407 -8.06012 36863 ft 505 kts 97°
2026-05-08 19:12 42.89794 -7.96451 36866 ft 505 kts 98°
2026-05-08 19:13 42.89175 -7.86961 36868 ft 505 kts 98°
2026-05-08 19:13 42.88544 -7.77418 36866 ft 505 kts 98°
2026-05-08 19:14 42.87905 -7.67866 36871 ft 505 kts 98°
2026-05-08 19:14 42.87259 -7.58315 36861 ft 505 kts 98°
2026-05-08 19:15 42.86610 -7.48836 36872 ft 505 kts 98°
2026-05-08 19:15 42.85948 -7.39309 36879 ft 505 kts 98°
2026-05-08 19:16 42.85277 -7.29777 36877 ft 505 kts 98°
2026-05-08 19:16 42.84599 -7.20243 36861 ft 505 kts 99°
2026-05-08 19:17 42.83913 -7.10700 36890 ft 506 kts 99°
2026-05-08 19:17 42.83222 -7.01209 36890 ft 506 kts 99°
2026-05-08 19:18 42.82518 -6.91633 36885 ft 506 kts 99°
2026-05-08 19:18 42.81809 -6.82093 36877 ft 506 kts 99°
2026-05-08 19:19 42.81089 -6.72555 36888 ft 506 kts 99°
2026-05-08 19:19 42.80364 -6.63060 36888 ft 507 kts 99°
2026-05-08 19:20 42.79627 -6.53516 36895 ft 507 kts 99°
2026-05-08 19:20 42.78885 -6.43960 36886 ft 507 kts 100°
2026-05-08 19:21 42.78136 -6.34432 36902 ft 505 kts 100°
2026-05-08 19:21 42.77380 -6.24934 36902 ft 504 kts 100°
2026-05-08 19:22 42.76615 -6.15434 36901 ft 504 kts 100°
2026-05-08 19:22 42.75846 -6.05946 36904 ft 504 kts 98°
2026-05-08 19:23 42.75174 -5.96505 36908 ft 504 kts 98°
2026-05-08 19:23 42.74468 -5.87018 36911 ft 504 kts 98°
2026-05-08 19:24 42.73697 -5.77546 36912 ft 504 kts 99°
2026-05-08 19:24 42.72894 -5.68078 36906 ft 504 kts 99°
2026-05-08 19:25 42.72080 -5.58593 36920 ft 504 kts 99°
2026-05-08 19:25 42.71259 -5.49119 36920 ft 504 kts 99°
2026-05-08 19:26 42.70441 -5.39706 36923 ft 504 kts 99°
2026-05-08 19:26 42.69612 -5.30238 36923 ft 504 kts 100°
2026-05-08 19:27 42.68775 -5.20765 36925 ft 505 kts 100°
2026-05-08 19:27 42.67928 -5.11275 36928 ft 505 kts 100°
2026-05-08 19:28 42.67073 -5.01790 36931 ft 505 kts 100°
2026-05-08 19:28 42.66216 -4.92363 36930 ft 505 kts 100°
2026-05-08 19:29 42.65339 -4.82843 36931 ft 507 kts 100°
2026-05-08 19:29 42.64606 -4.74948 36922 ft 507 kts 100°
2026-05-08 19:30 42.63709 -4.65441 36944 ft 507 kts 101°
2026-05-08 19:30 42.62807 -4.55953 36639 ft 506 kts 98°
2026-05-08 19:30 42.62420 -4.51191 36377 ft 509 kts 97°
2026-05-08 19:31 42.62046 -4.46446 36122 ft 512 kts 98°
2026-05-08 19:31 42.61651 -4.41640 35872 ft 512 kts 98°
2026-05-08 19:31 42.61230 -4.36834 35620 ft 513 kts 98°
2026-05-08 19:31 42.60788 -4.32029 35377 ft 513 kts 99°
2026-05-08 19:32 42.60328 -4.27217 35131 ft 514 kts 99°
2026-05-08 19:32 42.59857 -4.22408 34890 ft 514 kts 99°
2026-05-08 19:32 42.59379 -4.17587 34648 ft 515 kts 99°
2026-05-08 19:32 42.58898 -4.12772 34416 ft 515 kts 99°
2026-05-08 19:33 42.58413 -4.07947 34184 ft 516 kts 99°
2026-05-08 19:33 42.57927 -4.03115 33946 ft 516 kts 99°
2026-05-08 19:33 42.57392 -3.98296 33672 ft 516 kts 104°
2026-05-08 19:33 42.56783 -3.93566 33403 ft 515 kts 105°
2026-05-08 19:34 42.56164 -3.88772 33131 ft 516 kts 104°
2026-05-08 19:34 42.55579 -3.83967 32861 ft 517 kts 104°
2026-05-08 19:34 42.55029 -3.79130 32551 ft 518 kts 103°
2026-05-08 19:34 42.54505 -3.74273 32278 ft 522 kts 103°
2026-05-08 19:35 42.53995 -3.69393 32013 ft 523 kts 103°
2026-05-08 19:35 42.53493 -3.64500 31749 ft 524 kts 103°
2026-05-08 19:35 42.52991 -3.59602 31495 ft 524 kts 103°
2026-05-08 19:35 42.52486 -3.54701 31239 ft 525 kts 103°
2026-05-08 19:36 42.51982 -3.49855 30989 ft 525 kts 103°
2026-05-08 19:36 42.51468 -3.44947 30748 ft 525 kts 103°
2026-05-08 19:36 42.50950 -3.40040 30485 ft 526 kts 103°
2026-05-08 19:36 42.50429 -3.35119 30235 ft 528 kts 103°
2026-05-08 19:37 42.49904 -3.30194 29980 ft 528 kts 103°
2026-05-08 19:37 42.49375 -3.25258 29694 ft 528 kts 103°
2026-05-08 19:37 42.48851 -3.20342 29414 ft 526 kts 103°
2026-05-08 19:37 42.48326 -3.15436 29126 ft 524 kts 103°
2026-05-08 19:38 42.47798 -3.10561 28833 ft 522 kts 103°
2026-05-08 19:38 42.47269 -3.05709 28572 ft 520 kts 103°
2026-05-08 19:38 42.46741 -3.00879 28292 ft 518 kts 103°
2026-05-08 19:38 42.46210 -2.96048 28014 ft 517 kts 103°
2026-05-08 19:39 42.45684 -2.91288 27747 ft 515 kts 103°
2026-05-08 19:39 42.44954 -2.86578 27482 ft 509 kts 109°
2026-05-08 19:39 42.44079 -2.81941 27218 ft 506 kts 110°
2026-05-08 19:39 42.43165 -2.77343 26955 ft 503 kts 110°
2026-05-08 19:40 42.42232 -2.72787 26692 ft 501 kts 111°
2026-05-08 19:40 42.41290 -2.68256 26440 ft 499 kts 111°
2026-05-08 19:40 42.40359 -2.63798 26167 ft 498 kts 111°
2026-05-08 19:40 42.39415 -2.59277 25915 ft 498 kts 110°
2026-05-08 19:41 42.38477 -2.54779 25665 ft 496 kts 110°
2026-05-08 19:41 42.37546 -2.50311 25399 ft 494 kts 111°
2026-05-08 19:41 42.36610 -2.45817 25160 ft 494 kts 111°
2026-05-08 19:41 42.35678 -2.41353 24922 ft 493 kts 111°
2026-05-08 19:42 42.34746 -2.36896 24678 ft 492 kts 111°
2026-05-08 19:42 42.33818 -2.32461 24434 ft 489 kts 111°
2026-05-08 19:42 42.32901 -2.28093 24191 ft 488 kts 111°
2026-05-08 19:42 42.31970 -2.23674 23959 ft 488 kts 111°
2026-05-08 19:43 42.31040 -2.19268 23722 ft 487 kts 110°
2026-05-08 19:43 42.30111 -2.14868 23478 ft 485 kts 110°
2026-05-08 19:43 42.29185 -2.10493 23223 ft 483 kts 110°
2026-05-08 19:43 42.28262 -2.06143 22957 ft 481 kts 110°
2026-05-08 19:44 42.27341 -2.01807 22674 ft 479 kts 110°
2026-05-08 19:44 42.26425 -1.97492 22412 ft 476 kts 110°
2026-05-08 19:44 42.25522 -1.93252 22149 ft 474 kts 110°
2026-05-08 19:44 42.24605 -1.88977 21871 ft 472 kts 110°
2026-05-08 19:45 42.23691 -1.84729 21612 ft 471 kts 110°
2026-05-08 19:45 42.22778 -1.80488 21353 ft 469 kts 110°
2026-05-08 19:45 42.21869 -1.76274 21098 ft 467 kts 110°
2026-05-08 19:45 42.20960 -1.72064 20837 ft 465 kts 110°
2026-05-08 19:46 42.20068 -1.67938 20594 ft 463 kts 110°
2026-05-08 19:46 42.19166 -1.63778 20342 ft 460 kts 110°
2026-05-08 19:46 42.17371 -1.55514 19836 ft 457 kts 110°
2026-05-08 19:47 42.16475 -1.51407 19590 ft 456 kts 110°
2026-05-08 19:47 42.15581 -1.47311 19338 ft 455 kts 110°
2026-05-08 19:47 42.14686 -1.43224 19098 ft 453 kts 110°
2026-05-08 19:47 42.13797 -1.39163 18866 ft 451 kts 110°
2026-05-08 19:48 42.12909 -1.35111 18625 ft 450 kts 110°
2026-05-08 19:48 42.12024 -1.31086 18386 ft 448 kts 110°
2026-05-08 19:48 42.11149 -1.27120 18149 ft 446 kts 110°
2026-05-08 19:48 42.10267 -1.23126 17890 ft 443 kts 110°
2026-05-08 19:49 42.09391 -1.19154 17624 ft 441 kts 110°
2026-05-08 19:49 42.08521 -1.15211 17356 ft 438 kts 110°
2026-05-08 19:49 42.07650 -1.11282 17088 ft 437 kts 110°
2026-05-08 19:49 42.06780 -1.07368 16822 ft 435 kts 110°
2026-05-08 19:50 42.05915 -1.03481 16566 ft 433 kts 110°
2026-05-08 19:50 42.05051 -0.99611 16311 ft 430 kts 110°
2026-05-08 19:50 42.04191 -0.95764 16063 ft 428 kts 110°
2026-05-08 19:50 42.03334 -0.91931 15963 ft 427 kts 110°
2026-05-08 19:51 42.02477 -0.88108 15962 ft 426 kts 110°
2026-05-08 19:51 42.01623 -0.84297 15963 ft 426 kts 110°
2026-05-08 19:51 42.00764 -0.80491 15964 ft 425 kts 110°
2026-05-08 19:51 41.99901 -0.76677 15965 ft 425 kts 110°
2026-05-08 19:52 41.99039 -0.72871 15978 ft 426 kts 110°
2026-05-08 19:52 41.98186 -0.69107 15974 ft 427 kts 110°
2026-05-08 19:52 41.97318 -0.65287 15980 ft 428 kts 110°
2026-05-08 19:52 41.96447 -0.61462 15983 ft 428 kts 110°
2026-05-08 19:53 41.95574 -0.57627 15985 ft 428 kts 110°
2026-05-08 19:53 41.94698 -0.53790 15987 ft 428 kts 110°
2026-05-08 19:53 41.93836 -0.50018 15987 ft 428 kts 110°
2026-05-08 19:53 41.92962 -0.46198 15988 ft 428 kts 110°
2026-05-08 19:54 41.92084 -0.42374 15991 ft 428 kts 110°
2026-05-08 19:54 41.91207 -0.38557 15991 ft 428 kts 110°
2026-05-08 19:54 41.90330 -0.34735 15991 ft 428 kts 109°
2026-05-08 19:54 41.89485 -0.30907 15989 ft 428 kts 108°
2026-05-08 19:55 41.88676 -0.27053 15990 ft 428 kts 105°
2026-05-08 19:55 41.87933 -0.23186 15989 ft 429 kts 104°
2026-05-08 19:55 41.87186 -0.19301 15989 ft 429 kts 105°
2026-05-08 19:55 41.86410 -0.15483 15990 ft 429 kts 106°
2026-05-08 19:56 41.85578 -0.11619 15988 ft 429 kts 107°
2026-05-08 19:56 41.84715 -0.07785 15987 ft 429 kts 107°
2026-05-08 19:56 41.83832 -0.03971 15986 ft 428 kts 107°
2026-05-08 19:56 41.82937 -0.00150 15979 ft 428 kts 107°
2026-05-08 19:57 41.82053 0.03612 15988 ft 429 kts 107°
2026-05-08 19:57 41.81158 0.07423 15991 ft 429 kts 107°
2026-05-08 19:57 41.80262 0.11236 15990 ft 426 kts 107°
2026-05-08 19:57 41.79404 0.14939 16001 ft 404 kts 105°
2026-05-08 19:58 41.78643 0.18463 15995 ft 381 kts 102°
2026-05-08 19:58 41.77894 0.21830 16002 ft 376 kts 102°
2026-05-08 19:58 41.77141 0.25185 15990 ft 377 kts 102°
2026-05-08 19:58 41.76370 0.28546 15997 ft 377 kts 103°
2026-05-08 19:59 41.75442 0.31839 15984 ft 379 kts 112°
2026-05-08 19:59 41.74076 0.34843 16004 ft 377 kts 123°
2026-05-08 19:59 41.72467 0.37581 16004 ft 371 kts 126°
2026-05-08 19:59 41.70852 0.40256 15993 ft 369 kts 125°
2026-05-08 20:00 41.69253 0.42943 15992 ft 369 kts 124°
2026-05-08 20:00 41.67657 0.45635 15992 ft 369 kts 124°
2026-05-08 20:00 41.66062 0.48328 15993 ft 369 kts 124°
2026-05-08 20:00 41.64467 0.51017 15993 ft 369 kts 124°
2026-05-08 20:01 41.62873 0.53708 15995 ft 369 kts 124°
2026-05-08 20:01 41.61297 0.56363 15994 ft 369 kts 124°
2026-05-08 20:01 41.59700 0.59052 15994 ft 369 kts 124°
2026-05-08 20:01 41.58105 0.61737 15997 ft 369 kts 124°
2026-05-08 20:02 41.56451 0.64355 16007 ft 368 kts 134°
2026-05-08 20:02 41.55118 0.67286 15983 ft 371 kts 115°
2026-05-08 20:02 41.54199 0.70522 15760 ft 372 kts 110°
2026-05-08 20:02 41.53388 0.73810 15512 ft 371 kts 109°
2026-05-08 20:03 41.52610 0.77084 15260 ft 369 kts 107°
2026-05-08 20:03 41.51891 0.80325 15026 ft 368 kts 105°
2026-05-08 20:03 41.51178 0.83602 14777 ft 367 kts 106°
2026-05-08 20:03 41.50453 0.86855 14536 ft 364 kts 106°
2026-05-08 20:04 41.49719 0.90088 14322 ft 361 kts 106°
2026-05-08 20:04 41.48986 0.93285 14080 ft 359 kts 106°
2026-05-08 20:04 41.48255 0.96457 13843 ft 356 kts 106°
2026-05-08 20:04 41.47529 0.99589 13602 ft 348 kts 106°
2026-05-08 20:05 41.46826 1.02622 13240 ft 338 kts 106°
2026-05-08 20:05 41.46133 1.05587 12829 ft 331 kts 106°
2026-05-08 20:05 41.45451 1.08497 12416 ft 325 kts 106°
2026-05-08 20:05 41.44777 1.11365 12006 ft 323 kts 106°
2026-05-08 20:06 41.44118 1.14177 11614 ft 320 kts 106°
2026-05-08 20:06 41.43453 1.17008 11202 ft 319 kts 106°
2026-05-08 20:06 41.42796 1.19804 10925 ft 311 kts 106°
2026-05-08 20:06 41.42160 1.22490 10821 ft 296 kts 106°
2026-05-08 20:07 41.41549 1.25050 10700 ft 283 kts 107°
2026-05-08 20:07 41.40957 1.27526 10487 ft 279 kts 106°
2026-05-08 20:07 41.40372 1.29979 10158 ft 277 kts 106°
2026-05-08 20:07 41.39791 1.32422 9850 ft 282 kts 106°
2026-05-08 20:08 41.39189 1.34980 9680 ft 293 kts 106°
2026-05-08 20:08 41.38582 1.37575 9440 ft 292 kts 106°
2026-05-08 20:08 41.37977 1.40155 8923 ft 291 kts 106°
2026-05-08 20:08 41.37379 1.42680 8557 ft 289 kts 106°
2026-05-08 20:09 41.36775 1.45231 8241 ft 287 kts 105°
2026-05-08 20:09 41.36176 1.47755 7920 ft 285 kts 106°
2026-05-08 20:09 41.35580 1.50264 7605 ft 284 kts 106°
2026-05-08 20:09 41.34985 1.52763 7280 ft 281 kts 105°
2026-05-08 20:10 41.34273 1.55174 6972 ft 279 kts 116°
2026-05-08 20:10 41.33282 1.57394 6673 ft 277 kts 121°
2026-05-08 20:10 41.32256 1.59503 6338 ft 274 kts 121°
2026-05-08 20:10 41.31220 1.61614 5994 ft 271 kts 121°
2026-05-08 20:11 41.30189 1.63717 5683 ft 270 kts 121°
2026-05-08 20:11 41.29168 1.65807 5352 ft 268 kts 121°
2026-05-08 20:11 41.28154 1.67881 5044 ft 266 kts 121°
2026-05-08 20:11 41.27149 1.69939 4702 ft 264 kts 121°
2026-05-08 20:12 41.26168 1.71940 4551 ft 250 kts 118°
2026-05-08 20:12 41.25291 1.73843 4471 ft 233 kts 115°
2026-05-08 20:12 41.24480 1.75623 4366 ft 217 kts 116°
2026-05-08 20:12 41.23698 1.77264 4274 ft 203 kts 117°
2026-05-08 20:13 41.22950 1.78783 4200 ft 197 kts 117°
2026-05-08 20:13 41.22217 1.80256 4116 ft 183 kts 117°
2026-05-08 20:13 41.21602 1.81671 4008 ft 171 kts 105°
2026-05-08 20:13 41.21497 1.83169 3944 ft 158 kts 78°
2026-05-08 20:14 41.21807 1.84534 3760 ft 152 kts 60°
2026-05-08 20:14 41.22259 1.85759 3508 ft 143 kts 59°
2026-05-08 20:14 41.22670 1.86942 3315 ft 140 kts 72°
2026-05-08 20:14 41.23018 1.88145 3127 ft 139 kts 71°
2026-05-08 20:15 41.23384 1.89327 2927 ft 138 kts 69°
2026-05-08 20:15 41.23769 1.90491 2760 ft 137 kts 68°
2026-05-08 20:15 41.24031 1.91257 2610 ft 137 kts 66°
2026-05-08 20:15 41.24560 1.92780 2377 ft 137 kts 65°
2026-05-08 20:16 41.24948 1.93932 2193 ft 136 kts 67°
2026-05-08 20:16 41.25212 1.94708 2079 ft 136 kts 68°
2026-05-08 20:16 41.25599 1.95844 1890 ft 135 kts 69°
2026-05-08 20:16 41.25982 1.96965 1713 ft 134 kts 68°
2026-05-08 20:17 41.26372 1.98105 1523 ft 133 kts 68°
2026-05-08 20:17 41.26751 1.99213 1355 ft 133 kts 69°
2026-05-08 20:17 41.27133 2.00331 1171 ft 133 kts 68°
2026-05-08 20:17 41.27514 2.01443 1004 ft 132 kts 68°
2026-05-08 20:18 41.27895 2.02559 811 ft 132 kts 68°
2026-05-08 20:18 41.28276 2.03672 638 ft 132 kts 67°
2026-05-08 20:18 41.28652 2.04792 426 ft 133 kts 68°
2026-05-08 20:18 41.29015 2.05909 242 ft 132 kts 66°
2026-05-08 20:19 41.29417 2.07004 104 ft 132 kts 68°
2026-05-08 20:19 41.29783 2.08096 28 ft 122 kts 67°
2026-05-08 20:19 41.30088 2.08966 23 ft 87 kts 66°
2026-05-08 20:19 41.30223 2.09330 26 ft 30 kts 56°
2026-05-08 20:20 41.30370 2.09512 26 ft 26 kts 30°
2026-05-08 20:20 41.30481 2.09470 27 ft 12 kts 295°
2026-05-08 20:20 41.30471 2.09358 29 ft 19 kts 252°
2026-05-08 20:20 41.30407 2.09152 29 ft 29 kts 240°
2026-05-08 20:21 41.30361 2.08891 25 ft 29 kts 272°
2026-05-08 20:21 41.30297 2.08633 30 ft 30 kts 244°
2026-05-08 20:21 41.30271 2.08387 24 ft 26 kts 261°
2026-05-08 20:21 41.30201 2.08157 27 ft 27 kts 246°
2026-05-08 20:22 41.30169 2.08049 29 ft 10 kts 256°
2026-05-08 20:22 41.30191 2.07990 28 ft 4 kts 351°
2026-05-08 20:22 41.30209 2.07994 28 ft 0 kts 13°